Wetterdaten: Montag, 09.03.2026
Datum Zeit Temp. Aussen Temp. o. S. Temp +5cm Feuchte Auss Luftdruck Regen Sonnenschein Solar Windböen Empfang
09.03.2026 00:00 9,6 °C 9,4 °C 5,6 °C 77 % 1022,1 hPa 0,0 l/m² 0 min 0 W/m² 6,4 km/h (2 Bft) 97,87 %
09.03.2026 00:02 9,6 °C 9,4 °C 5,6 °C 77 % 1022,0 hPa 0,0 l/m² 0 min 0 W/m² 3,2 km/h (1 Bft) 6,67 %
09.03.2026 00:04 9,6 °C 8,9 °C 5,6 °C 77 % 1022,0 hPa 0,0 l/m² 0 min 0 W/m² 6,4 km/h (2 Bft) 84,78 %
09.03.2026 00:07 9,7 °C 8,9 °C 5,6 °C 77 % 1022,0 hPa 0,0 l/m² 0 min 0 W/m² 6,4 km/h (2 Bft) 97,22 %
09.03.2026 00:08 9,7 °C 8,9 °C 5,6 °C 77 % 1022,0 hPa 0,0 l/m² 0 min 0 W/m² 6,4 km/h (2 Bft) 96,00 %
09.03.2026 00:10 9,7 °C 8,9 °C 5,6 °C 77 % 1022,1 hPa 0,0 l/m² 0 min 0 W/m² 6,4 km/h (2 Bft) 86,89 %
09.03.2026 00:12 9,7 °C 8,9 °C 5,6 °C 77 % 1022,0 hPa 0,0 l/m² 0 min 0 W/m² 12,9 km/h (3 Bft) 98,25 %
09.03.2026 00:14 9,7 °C 8,9 °C 5,6 °C 77 % 1022,0 hPa 0,0 l/m² 0 min 0 W/m² 16,1 km/h (3 Bft) 98,00 %
09.03.2026 00:16 9,8 °C 8,9 °C 5,6 °C 77 % 1022,0 hPa 0,0 l/m² 0 min 0 W/m² 12,9 km/h (3 Bft) 95,92 %
09.03.2026 00:18 9,8 °C 8,9 °C 5,6 °C 76 % 1022,0 hPa 0,0 l/m² 0 min 0 W/m² 16,1 km/h (3 Bft) 97,14 %
09.03.2026 00:20 9,8 °C 8,9 °C 5,6 °C 76 % 1022,0 hPa 0,0 l/m² 0 min 0 W/m² 12,9 km/h (3 Bft) 97,87 %
09.03.2026 00:22 9,8 °C 8,9 °C 5,6 °C 77 % 1021,9 hPa 0,0 l/m² 0 min 0 W/m² 9,7 km/h (2 Bft) 97,87 %
09.03.2026 00:24 9,8 °C 8,9 °C 5,6 °C 77 % 1022,0 hPa 0,0 l/m² 0 min 0 W/m² 12,9 km/h (3 Bft) 95,74 %
09.03.2026 00:26 9,8 °C 8,9 °C 5,0 °C 76 % 1022,0 hPa 0,0 l/m² 0 min 0 W/m² 9,7 km/h (2 Bft) 94,34 %
09.03.2026 00:28 9,8 °C 8,9 °C 5,0 °C 76 % 1022,0 hPa 0,0 l/m² 0 min 0 W/m² 12,9 km/h (3 Bft) 97,96 %
09.03.2026 00:30 9,8 °C 8,9 °C 5,0 °C 76 % 1022,0 hPa 0,0 l/m² 0 min 0 W/m² 12,9 km/h (3 Bft) 98,00 %
09.03.2026 00:32 9,8 °C 8,9 °C 5,0 °C 76 % 1022,0 hPa 0,0 l/m² 0 min 0 W/m² 12,9 km/h (3 Bft) 97,14 %
09.03.2026 00:34 9,7 °C 8,9 °C 5,0 °C 76 % 1022,0 hPa 0,0 l/m² 0 min 0 W/m² 9,7 km/h (2 Bft) 97,87 %
09.03.2026 00:36 9,7 °C 8,9 °C 5,0 °C 76 % 1022,0 hPa 0,0 l/m² 0 min 0 W/m² 12,9 km/h (3 Bft) 98,11 %
09.03.2026 00:38 9,7 °C 8,9 °C 5,0 °C 77 % 1022,0 hPa 0,0 l/m² 0 min 0 W/m² 19,3 km/h (3 Bft) 98,00 %
09.03.2026 00:40 9,7 °C 8,9 °C 5,0 °C 77 % 1022,0 hPa 0,0 l/m² 0 min 0 W/m² 12,9 km/h (3 Bft) 97,96 %
09.03.2026 00:42 9,7 °C 8,9 °C 5,0 °C 77 % 1022,0 hPa 0,0 l/m² 0 min 0 W/m² 12,9 km/h (3 Bft) 95,74 %
09.03.2026 00:44 9,7 °C 8,9 °C 5,0 °C 77 % 1022,0 hPa 0,0 l/m² 0 min 0 W/m² 6,4 km/h (2 Bft) 97,14 %
09.03.2026 00:46 9,7 °C 8,9 °C 5,0 °C 77 % 1022,0 hPa 0,0 l/m² 0 min 0 W/m² 12,9 km/h (3 Bft) 95,74 %
09.03.2026 00:48 9,7 °C 8,9 °C 5,0 °C 77 % 1022,0 hPa 0,0 l/m² 0 min 0 W/m² 9,7 km/h (2 Bft) 98,11 %
09.03.2026 00:50 9,6 °C 8,9 °C 5,0 °C 77 % 1022,0 hPa 0,0 l/m² 0 min 0 W/m² 9,7 km/h (2 Bft) 100,00 %
09.03.2026 00:52 9,6 °C 8,9 °C 5,0 °C 77 % 1022,0 hPa 0,0 l/m² 0 min 0 W/m² 6,4 km/h (2 Bft) 100,00 %
09.03.2026 00:54 9,6 °C 8,9 °C 5,0 °C 77 % 1022,1 hPa 0,0 l/m² 0 min 0 W/m² 12,9 km/h (3 Bft) 100,00 %
09.03.2026 00:56 9,6 °C 8,9 °C 5,0 °C 77 % 1022,1 hPa 0,0 l/m² 0 min 0 W/m² 12,9 km/h (3 Bft) 100,00 %
09.03.2026 00:58 9,6 °C 8,9 °C 5,0 °C 77 % 1022,0 hPa 0,0 l/m² 0 min 0 W/m² 16,1 km/h (3 Bft) 100,00 %
09.03.2026 01:00 9,6 °C 8,9 °C 5,0 °C 77 % 1022,1 hPa 0,0 l/m² 0 min 0 W/m² 12,9 km/h (3 Bft) 100,00 %
09.03.2026 01:02 9,6 °C 8,3 °C 5,0 °C 77 % 1022,0 hPa 0,0 l/m² 0 min 0 W/m² 9,7 km/h (2 Bft) 100,00 %
09.03.2026 01:04 9,6 °C 8,3 °C 5,0 °C 77 % 1022,0 hPa 0,0 l/m² 0 min 0 W/m² 12,9 km/h (3 Bft) 100,00 %
09.03.2026 01:06 9,6 °C 8,3 °C 5,0 °C 77 % 1022,0 hPa 0,0 l/m² 0 min 0 W/m² 12,9 km/h (3 Bft) 100,00 %
09.03.2026 01:08 9,6 °C 8,3 °C 5,0 °C 77 % 1022,0 hPa 0,0 l/m² 0 min 0 W/m² 12,9 km/h (3 Bft) 100,00 %
09.03.2026 01:10 9,6 °C 8,3 °C 5,0 °C 77 % 1022,0 hPa 0,0 l/m² 0 min 0 W/m² 6,4 km/h (2 Bft) 100,00 %
09.03.2026 01:12 9,5 °C 8,3 °C 5,0 °C 77 % 1022,0 hPa 0,0 l/m² 0 min 0 W/m² 6,4 km/h (2 Bft) 100,00 %
09.03.2026 01:14 9,5 °C 8,3 °C 5,0 °C 77 % 1022,0 hPa 0,0 l/m² 0 min 0 W/m² 6,4 km/h (2 Bft) 100,00 %
09.03.2026 01:16 9,5 °C 8,3 °C 5,0 °C 77 % 1022,0 hPa 0,0 l/m² 0 min 0 W/m² 6,4 km/h (2 Bft) 95,74 %
09.03.2026 01:18 9,5 °C 8,3 °C 5,0 °C 77 % 1022,0 hPa 0,0 l/m² 0 min 0 W/m² 6,4 km/h (2 Bft) 95,74 %
09.03.2026 01:20 9,5 °C 8,3 °C 5,0 °C 77 % 1022,0 hPa 0,0 l/m² 0 min 0 W/m² 12,9 km/h (3 Bft) 97,87 %
09.03.2026 01:22 9,4 °C 8,3 °C 5,0 °C 77 % 1021,9 hPa 0,0 l/m² 0 min 0 W/m² 12,9 km/h (3 Bft) 97,87 %
09.03.2026 01:24 9,4 °C 8,3 °C 5,0 °C 77 % 1022,0 hPa 0,0 l/m² 0 min 0 W/m² 6,4 km/h (2 Bft) 95,74 %
09.03.2026 01:26 9,4 °C 8,3 °C 5,0 °C 77 % 1021,9 hPa 0,0 l/m² 0 min 0 W/m² 12,9 km/h (3 Bft) 97,83 %
09.03.2026 01:28 9,4 °C 8,3 °C 5,0 °C 77 % 1021,9 hPa 0,0 l/m² 0 min 0 W/m² 6,4 km/h (2 Bft) 95,74 %
09.03.2026 01:30 9,4 °C 8,3 °C 5,0 °C 77 % 1021,9 hPa 0,0 l/m² 0 min 0 W/m² 6,4 km/h (2 Bft) 97,87 %
09.03.2026 01:32 9,4 °C 8,3 °C 5,0 °C 77 % 1022,0 hPa 0,0 l/m² 0 min 0 W/m² 12,9 km/h (3 Bft) 95,74 %
09.03.2026 01:34 9,4 °C 8,3 °C 5,0 °C 77 % 1021,9 hPa 0,0 l/m² 0 min 0 W/m² 6,4 km/h (2 Bft) 97,87 %
09.03.2026 01:36 9,4 °C 8,3 °C 5,0 °C 77 % 1022,0 hPa 0,0 l/m² 0 min 0 W/m² 6,4 km/h (2 Bft) 95,74 %
09.03.2026 01:38 9,3 °C 8,3 °C 5,0 °C 77 % 1022,0 hPa 0,0 l/m² 0 min 0 W/m² 6,4 km/h (2 Bft) 95,65 %
09.03.2026 01:40 9,3 °C 8,3 °C 4,4 °C 77 % 1022,0 hPa 0,0 l/m² 0 min 0 W/m² 6,4 km/h (2 Bft) 95,74 %
09.03.2026 01:42 9,3 °C 8,3 °C 4,4 °C 78 % 1022,0 hPa 0,0 l/m² 0 min 0 W/m² 6,4 km/h (2 Bft) 95,74 %
09.03.2026 01:44 9,3 °C 8,3 °C 4,4 °C 78 % 1022,0 hPa 0,0 l/m² 0 min 0 W/m² 16,1 km/h (3 Bft) 95,74 %
09.03.2026 01:46 9,3 °C 8,3 °C 5,0 °C 78 % 1022,1 hPa 0,0 l/m² 0 min 0 W/m² 12,9 km/h (3 Bft) 93,62 %
09.03.2026 01:48 9,3 °C 8,3 °C 5,0 °C 78 % 1022,0 hPa 0,0 l/m² 0 min 0 W/m² 12,9 km/h (3 Bft) 95,74 %
09.03.2026 01:50 9,3 °C 8,3 °C 5,0 °C 78 % 1022,1 hPa 0,0 l/m² 0 min 0 W/m² 12,9 km/h (3 Bft) 97,83 %
09.03.2026 01:52 9,3 °C 8,3 °C 4,4 °C 78 % 1022,1 hPa 0,0 l/m² 0 min 0 W/m² 6,4 km/h (2 Bft) 97,87 %
09.03.2026 01:54 9,2 °C 8,3 °C 4,4 °C 78 % 1022,1 hPa 0,0 l/m² 0 min 0 W/m² 6,4 km/h (2 Bft) 97,87 %
09.03.2026 01:56 9,2 °C 8,3 °C 4,4 °C 78 % 1022,1 hPa 0,0 l/m² 0 min 0 W/m² 6,4 km/h (2 Bft) 97,87 %
09.03.2026 01:58 9,2 °C 8,3 °C 4,4 °C 78 % 1022,1 hPa 0,0 l/m² 0 min 0 W/m² 12,9 km/h (3 Bft) 97,87 %
09.03.2026 02:00 9,2 °C 8,3 °C 4,4 °C 78 % 1022,1 hPa 0,0 l/m² 0 min 0 W/m² 6,4 km/h (2 Bft) 97,87 %
09.03.2026 02:02 9,2 °C 8,3 °C 4,4 °C 78 % 1022,1 hPa 0,0 l/m² 0 min 0 W/m² 6,4 km/h (2 Bft) 97,83 %
09.03.2026 02:04 9,2 °C 8,3 °C 4,4 °C 78 % 1022,1 hPa 0,0 l/m² 0 min 0 W/m² 6,4 km/h (2 Bft) 97,96 %
09.03.2026 02:06 9,2 °C 8,3 °C 4,4 °C 78 % 1022,1 hPa 0,0 l/m² 0 min 0 W/m² 6,4 km/h (2 Bft) 95,74 %
09.03.2026 02:08 9,2 °C 8,3 °C 4,4 °C 78 % 1022,1 hPa 0,0 l/m² 0 min 0 W/m² 6,4 km/h (2 Bft) 97,87 %
09.03.2026 02:10 9,1 °C 8,3 °C 4,4 °C 78 % 1022,1 hPa 0,0 l/m² 0 min 0 W/m² 9,7 km/h (2 Bft) 97,87 %
09.03.2026 02:12 9,1 °C 8,3 °C 4,4 °C 78 % 1022,0 hPa 0,0 l/m² 0 min 0 W/m² 6,4 km/h (2 Bft) 97,83 %
09.03.2026 02:14 9,1 °C 8,3 °C 4,4 °C 78 % 1022,0 hPa 0,0 l/m² 0 min 0 W/m² 12,9 km/h (3 Bft) 95,74 %
09.03.2026 02:16 9,1 °C 8,3 °C 4,4 °C 78 % 1022,0 hPa 0,0 l/m² 0 min 0 W/m² 12,9 km/h (3 Bft) 97,87 %
09.03.2026 02:18 9,1 °C 8,3 °C 4,4 °C 78 % 1022,0 hPa 0,0 l/m² 0 min 0 W/m² 12,9 km/h (3 Bft) 100,00 %
09.03.2026 02:20 9,1 °C 8,3 °C 4,4 °C 78 % 1022,0 hPa 0,0 l/m² 0 min 0 W/m² 12,9 km/h (3 Bft) 100,00 %
09.03.2026 02:22 9,1 °C 8,3 °C 4,4 °C 78 % 1022,0 hPa 0,0 l/m² 0 min 0 W/m² 6,4 km/h (2 Bft) 100,00 %
09.03.2026 02:24 9,1 °C 8,3 °C 4,4 °C 78 % 1022,0 hPa 0,0 l/m² 0 min 0 W/m² 6,4 km/h (2 Bft) 100,00 %
09.03.2026 02:26 9,1 °C 8,3 °C 4,4 °C 78 % 1022,0 hPa 0,0 l/m² 0 min 0 W/m² 12,9 km/h (3 Bft) 100,00 %
09.03.2026 02:28 9,1 °C 7,8 °C 4,4 °C 79 % 1022,0 hPa 0,0 l/m² 0 min 0 W/m² 6,4 km/h (2 Bft) 100,00 %
09.03.2026 02:30 9,1 °C 7,8 °C 4,4 °C 79 % 1022,0 hPa 0,0 l/m² 0 min 0 W/m² 6,4 km/h (2 Bft) 100,00 %
09.03.2026 02:32 9,0 °C 7,8 °C 4,4 °C 79 % 1021,9 hPa 0,0 l/m² 0 min 0 W/m² 12,9 km/h (3 Bft) 100,00 %
09.03.2026 02:34 9,0 °C 7,8 °C 4,4 °C 79 % 1021,9 hPa 0,0 l/m² 0 min 0 W/m² 12,9 km/h (3 Bft) 100,00 %
09.03.2026 02:36 9,0 °C 7,8 °C 4,4 °C 79 % 1021,9 hPa 0,0 l/m² 0 min 0 W/m² 12,9 km/h (3 Bft) 100,00 %
09.03.2026 02:38 9,0 °C 7,8 °C 4,4 °C 79 % 1021,9 hPa 0,0 l/m² 0 min 0 W/m² 12,9 km/h (3 Bft) 100,00 %
09.03.2026 02:40 8,9 °C 7,8 °C 4,4 °C 79 % 1021,8 hPa 0,0 l/m² 0 min 0 W/m² 9,7 km/h (2 Bft) 100,00 %
09.03.2026 02:42 8,9 °C 7,8 °C 4,4 °C 79 % 1021,8 hPa 0,0 l/m² 0 min 0 W/m² 12,9 km/h (3 Bft) 95,74 %
09.03.2026 02:44 8,9 °C 7,8 °C 4,4 °C 79 % 1021,9 hPa 0,0 l/m² 0 min 0 W/m² 9,7 km/h (2 Bft) 100,00 %
09.03.2026 02:46 8,9 °C 7,8 °C 4,4 °C 79 % 1021,9 hPa 0,0 l/m² 0 min 0 W/m² 6,4 km/h (2 Bft) 97,87 %
09.03.2026 02:48 8,9 °C 7,8 °C 4,4 °C 79 % 1021,8 hPa 0,0 l/m² 0 min 0 W/m² 6,4 km/h (2 Bft) 100,00 %
09.03.2026 02:50 8,9 °C 7,8 °C 4,4 °C 79 % 1021,8 hPa 0,0 l/m² 0 min 0 W/m² 12,9 km/h (3 Bft) 100,00 %
09.03.2026 02:52 8,9 °C 7,8 °C 4,4 °C 79 % 1021,8 hPa 0,0 l/m² 0 min 0 W/m² 9,7 km/h (2 Bft) 100,00 %
09.03.2026 02:54 8,9 °C 7,8 °C 4,4 °C 79 % 1021,8 hPa 0,0 l/m² 0 min 0 W/m² 9,7 km/h (2 Bft) 100,00 %
09.03.2026 02:56 8,9 °C 7,8 °C 4,4 °C 79 % 1021,8 hPa 0,0 l/m² 0 min 0 W/m² 12,9 km/h (3 Bft) 97,87 %
09.03.2026 02:58 8,9 °C 7,8 °C 4,4 °C 79 % 1021,8 hPa 0,0 l/m² 0 min 0 W/m² 12,9 km/h (3 Bft) 100,00 %
09.03.2026 03:00 8,8 °C 7,8 °C 4,4 °C 79 % 1021,8 hPa 0,0 l/m² 0 min 0 W/m² 12,9 km/h (3 Bft) 100,00 %
09.03.2026 03:02 8,8 °C 7,8 °C 4,4 °C 79 % 1021,8 hPa 0,0 l/m² 0 min 0 W/m² 6,4 km/h (2 Bft) 100,00 %
09.03.2026 03:04 8,8 °C 7,8 °C 4,4 °C 79 % 1021,8 hPa 0,0 l/m² 0 min 0 W/m² 12,9 km/h (3 Bft) 93,75 %
09.03.2026 03:06 8,8 °C 7,8 °C 4,4 °C 79 % 1021,8 hPa 0,0 l/m² 0 min 0 W/m² 12,9 km/h (3 Bft) 95,74 %
09.03.2026 03:08 8,8 °C 7,8 °C 4,4 °C 79 % 1021,7 hPa 0,0 l/m² 0 min 0 W/m² 12,9 km/h (3 Bft) 95,74 %
09.03.2026 03:10 8,8 °C 7,8 °C 4,4 °C 79 % 1021,7 hPa 0,0 l/m² 0 min 0 W/m² 6,4 km/h (2 Bft) 95,65 %
09.03.2026 03:12 8,8 °C 7,8 °C 4,4 °C 79 % 1021,7 hPa 0,0 l/m² 0 min 0 W/m² 6,4 km/h (2 Bft) 93,62 %
09.03.2026 03:14 8,8 °C 7,8 °C 4,4 °C 79 % 1021,7 hPa 0,0 l/m² 0 min 0 W/m² 9,7 km/h (2 Bft) 95,74 %
09.03.2026 03:16 8,8 °C 7,8 °C 4,4 °C 79 % 1021,7 hPa 0,0 l/m² 0 min 0 W/m² 12,9 km/h (3 Bft) 97,87 %
09.03.2026 03:18 8,8 °C 7,8 °C 4,4 °C 80 % 1021,7 hPa 0,0 l/m² 0 min 0 W/m² 12,9 km/h (3 Bft) 95,74 %
09.03.2026 03:20 8,7 °C 7,8 °C 3,9 °C 80 % 1021,7 hPa 0,0 l/m² 0 min 0 W/m² 6,4 km/h (2 Bft) 93,62 %
09.03.2026 03:22 8,7 °C 7,8 °C 3,9 °C 80 % 1021,7 hPa 0,0 l/m² 0 min 0 W/m² 6,4 km/h (2 Bft) 95,65 %
09.03.2026 03:24 8,7 °C 7,8 °C 3,9 °C 80 % 1021,7 hPa 0,0 l/m² 0 min 0 W/m² 9,7 km/h (2 Bft) 95,74 %
09.03.2026 03:26 8,7 °C 7,2 °C 3,9 °C 80 % 1021,7 hPa 0,0 l/m² 0 min 0 W/m² 12,9 km/h (3 Bft) 95,74 %
09.03.2026 03:28 8,6 °C 7,2 °C 3,9 °C 80 % 1021,6 hPa 0,0 l/m² 0 min 0 W/m² 12,9 km/h (3 Bft) 95,74 %
09.03.2026 03:30 8,6 °C 7,2 °C 3,9 °C 80 % 1021,6 hPa 0,0 l/m² 0 min 0 W/m² 9,7 km/h (2 Bft) 93,62 %
09.03.2026 03:32 8,6 °C 7,2 °C 3,9 °C 80 % 1021,6 hPa 0,0 l/m² 0 min 0 W/m² 12,9 km/h (3 Bft) 95,74 %
09.03.2026 03:34 8,6 °C 7,2 °C 3,9 °C 80 % 1021,6 hPa 0,0 l/m² 0 min 0 W/m² 9,7 km/h (2 Bft) 97,83 %
09.03.2026 03:36 8,6 °C 7,2 °C 3,9 °C 80 % 1021,6 hPa 0,0 l/m² 0 min 0 W/m² 6,4 km/h (2 Bft) 97,87 %
09.03.2026 03:38 8,5 °C 7,2 °C 3,9 °C 80 % 1021,5 hPa 0,0 l/m² 0 min 0 W/m² 12,9 km/h (3 Bft) 95,74 %
09.03.2026 03:40 8,5 °C 7,2 °C 3,9 °C 80 % 1021,5 hPa 0,0 l/m² 0 min 0 W/m² 6,4 km/h (2 Bft) 95,74 %
09.03.2026 03:42 8,4 °C 7,2 °C 3,9 °C 80 % 1021,5 hPa 0,0 l/m² 0 min 0 W/m² 6,4 km/h (2 Bft) 97,87 %
09.03.2026 03:44 8,4 °C 7,2 °C 3,9 °C 80 % 1021,5 hPa 0,0 l/m² 0 min 0 W/m² 6,4 km/h (2 Bft) 97,87 %
09.03.2026 03:46 8,4 °C 7,2 °C 3,9 °C 81 % 1021,5 hPa 0,0 l/m² 0 min 0 W/m² 6,4 km/h (2 Bft) 95,65 %
09.03.2026 03:48 8,4 °C 7,2 °C 3,9 °C 81 % 1021,5 hPa 0,0 l/m² 0 min 0 W/m² 6,4 km/h (2 Bft) 97,87 %
09.03.2026 03:50 8,4 °C 7,2 °C 3,9 °C 80 % 1021,5 hPa 0,0 l/m² 0 min 0 W/m² 12,9 km/h (3 Bft) 97,87 %
09.03.2026 03:52 8,3 °C 7,2 °C 3,9 °C 81 % 1021,5 hPa 0,0 l/m² 0 min 0 W/m² 6,4 km/h (2 Bft) 93,62 %
09.03.2026 03:54 8,3 °C 7,2 °C 3,3 °C 81 % 1021,5 hPa 0,0 l/m² 0 min 0 W/m² 6,4 km/h (2 Bft) 95,74 %
09.03.2026 03:56 8,3 °C 7,2 °C 3,3 °C 81 % 1021,4 hPa 0,0 l/m² 0 min 0 W/m² 6,4 km/h (2 Bft) 97,87 %
09.03.2026 03:58 8,3 °C 7,2 °C 3,3 °C 81 % 1021,4 hPa 0,0 l/m² 0 min 0 W/m² 6,4 km/h (2 Bft) 93,48 %
09.03.2026 04:00 8,2 °C 7,2 °C 3,3 °C 81 % 1021,4 hPa 0,0 l/m² 0 min 0 W/m² 6,4 km/h (2 Bft) 97,87 %
09.03.2026 04:02 8,2 °C 6,7 °C 3,3 °C 81 % 1021,4 hPa 0,0 l/m² 0 min 0 W/m² 6,4 km/h (2 Bft) 95,00 %
09.03.2026 04:04 8,2 °C 6,7 °C 3,3 °C 81 % 1021,3 hPa 0,0 l/m² 0 min 0 W/m² 3,2 km/h (1 Bft) 95,92 %
09.03.2026 04:06 8,2 °C 6,7 °C 3,3 °C 81 % 1021,3 hPa 0,0 l/m² 0 min 0 W/m² 3,2 km/h (1 Bft) 97,87 %
09.03.2026 04:08 8,1 °C 6,7 °C 3,3 °C 81 % 1021,3 hPa 0,0 l/m² 0 min 0 W/m² 3,2 km/h (1 Bft) 97,83 %
09.03.2026 04:10 8,1 °C 6,7 °C 3,3 °C 81 % 1021,3 hPa 0,0 l/m² 0 min 0 W/m² 6,4 km/h (2 Bft) 95,74 %
09.03.2026 04:12 8,1 °C 6,7 °C 3,3 °C 81 % 1021,3 hPa 0,0 l/m² 0 min 0 W/m² 3,2 km/h (1 Bft) 95,74 %
09.03.2026 04:14 8,1 °C 6,7 °C 3,3 °C 81 % 1021,3 hPa 0,0 l/m² 0 min 0 W/m² 6,4 km/h (2 Bft) 97,87 %
09.03.2026 04:16 8,0 °C 6,7 °C 3,3 °C 82 % 1021,2 hPa 0,0 l/m² 0 min 0 W/m² 6,4 km/h (2 Bft) 97,87 %
09.03.2026 04:18 8,0 °C 6,7 °C 3,3 °C 82 % 1021,2 hPa 0,0 l/m² 0 min 0 W/m² 3,2 km/h (1 Bft) 97,87 %
09.03.2026 04:20 7,9 °C 6,7 °C 3,3 °C 82 % 1021,2 hPa 0,0 l/m² 0 min 0 W/m² 6,4 km/h (2 Bft) 97,83 %
09.03.2026 04:22 7,9 °C 6,7 °C 3,3 °C 82 % 1021,2 hPa 0,0 l/m² 0 min 0 W/m² 12,9 km/h (3 Bft) 97,87 %
09.03.2026 04:24 7,9 °C 6,7 °C 3,3 °C 82 % 1021,3 hPa 0,0 l/m² 0 min 0 W/m² 3,2 km/h (1 Bft) 97,87 %
09.03.2026 04:26 7,9 °C 6,7 °C 3,3 °C 82 % 1021,3 hPa 0,0 l/m² 0 min 0 W/m² 3,2 km/h (1 Bft) 97,87 %
09.03.2026 04:28 7,8 °C 6,7 °C 2,8 °C 82 % 1021,3 hPa 0,0 l/m² 0 min 0 W/m² 0,0 km/h (0 Bft) 95,74 %
09.03.2026 04:30 7,8 °C 6,7 °C 2,8 °C 82 % 1021,3 hPa 0,0 l/m² 0 min 0 W/m² 3,2 km/h (1 Bft) 97,87 %
09.03.2026 04:32 7,8 °C 6,7 °C 2,8 °C 82 % 1021,2 hPa 0,0 l/m² 0 min 0 W/m² 3,2 km/h (1 Bft) 97,83 %
09.03.2026 04:34 7,8 °C 6,1 °C 2,8 °C 82 % 1021,2 hPa 0,0 l/m² 0 min 0 W/m² 3,2 km/h (1 Bft) 97,87 %
09.03.2026 04:36 7,8 °C 6,1 °C 2,8 °C 82 % 1021,2 hPa 0,0 l/m² 0 min 0 W/m² 3,2 km/h (1 Bft) 100,00 %
09.03.2026 04:38 7,7 °C 6,1 °C 2,8 °C 82 % 1021,2 hPa 0,0 l/m² 0 min 0 W/m² 3,2 km/h (1 Bft) 100,00 %
09.03.2026 04:40 7,7 °C 6,1 °C 2,8 °C 83 % 1021,2 hPa 0,0 l/m² 0 min 0 W/m² 3,2 km/h (1 Bft) 97,87 %
09.03.2026 04:42 7,7 °C 6,1 °C 2,8 °C 83 % 1021,2 hPa 0,0 l/m² 0 min 0 W/m² 3,2 km/h (1 Bft) 100,00 %
09.03.2026 04:44 7,7 °C 6,1 °C 2,8 °C 83 % 1021,2 hPa 0,0 l/m² 0 min 0 W/m² 3,2 km/h (1 Bft) 100,00 %
09.03.2026 04:46 7,6 °C 6,1 °C 2,8 °C 83 % 1021,2 hPa 0,0 l/m² 0 min 0 W/m² 0,0 km/h (0 Bft) 97,87 %
09.03.2026 04:48 7,6 °C 6,1 °C 2,2 °C 83 % 1021,3 hPa 0,0 l/m² 0 min 0 W/m² 0,0 km/h (0 Bft) 97,87 %
09.03.2026 04:50 7,6 °C 6,1 °C 2,2 °C 83 % 1021,2 hPa 0,0 l/m² 0 min 0 W/m² 0,0 km/h (0 Bft) 97,87 %
09.03.2026 04:52 7,6 °C 6,1 °C 2,2 °C 83 % 1021,3 hPa 0,0 l/m² 0 min 0 W/m² 3,2 km/h (1 Bft) 97,87 %
09.03.2026 04:54 7,5 °C 6,1 °C 2,2 °C 83 % 1021,3 hPa 0,0 l/m² 0 min 0 W/m² 3,2 km/h (1 Bft) 95,74 %
09.03.2026 04:56 7,4 °C 6,1 °C 2,2 °C 83 % 1021,3 hPa 0,0 l/m² 0 min 0 W/m² 6,4 km/h (2 Bft) 97,83 %
09.03.2026 04:58 7,4 °C 6,1 °C 2,2 °C 83 % 1021,3 hPa 0,0 l/m² 0 min 0 W/m² 0,0 km/h (0 Bft) 95,74 %
09.03.2026 05:00 7,4 °C 6,1 °C 2,2 °C 83 % 1021,3 hPa 0,0 l/m² 0 min 0 W/m² 0,0 km/h (0 Bft) 95,74 %
09.03.2026 05:02 7,3 °C 6,1 °C 2,2 °C 84 % 1021,3 hPa 0,0 l/m² 0 min 0 W/m² 6,4 km/h (2 Bft) 95,74 %
09.03.2026 05:04 7,3 °C 6,1 °C 2,2 °C 84 % 1021,3 hPa 0,0 l/m² 0 min 0 W/m² 3,2 km/h (1 Bft) 97,92 %
09.03.2026 05:06 7,3 °C 6,1 °C 2,2 °C 84 % 1021,3 hPa 0,0 l/m² 0 min 0 W/m² 6,4 km/h (2 Bft) 97,87 %
09.03.2026 05:08 7,3 °C 6,1 °C 2,2 °C 84 % 1021,3 hPa 0,0 l/m² 0 min 0 W/m² 3,2 km/h (1 Bft) 97,87 %
09.03.2026 05:10 7,2 °C 6,1 °C 2,2 °C 84 % 1021,3 hPa 0,0 l/m² 0 min 0 W/m² 3,2 km/h (1 Bft) 97,83 %
09.03.2026 05:12 7,2 °C 6,1 °C 2,2 °C 84 % 1021,3 hPa 0,0 l/m² 0 min 0 W/m² 3,2 km/h (1 Bft) 97,87 %
09.03.2026 05:14 7,2 °C 6,1 °C 2,8 °C 84 % 1021,3 hPa 0,0 l/m² 0 min 0 W/m² 3,2 km/h (1 Bft) 97,87 %
09.03.2026 05:16 7,2 °C 6,1 °C 2,8 °C 84 % 1021,3 hPa 0,0 l/m² 0 min 0 W/m² 3,2 km/h (1 Bft) 97,87 %
09.03.2026 05:18 7,1 °C 6,1 °C 2,8 °C 84 % 1021,3 hPa 0,0 l/m² 0 min 0 W/m² 3,2 km/h (1 Bft) 97,87 %
09.03.2026 05:20 7,1 °C 6,1 °C 2,2 °C 84 % 1021,3 hPa 0,0 l/m² 0 min 0 W/m² 3,2 km/h (1 Bft) 97,83 %
09.03.2026 05:22 7,1 °C 6,1 °C 2,2 °C 84 % 1021,3 hPa 0,0 l/m² 0 min 0 W/m² 3,2 km/h (1 Bft) 100,00 %
09.03.2026 05:24 7,1 °C 6,1 °C 2,2 °C 84 % 1021,3 hPa 0,0 l/m² 0 min 0 W/m² 3,2 km/h (1 Bft) 100,00 %
09.03.2026 05:26 7,1 °C 5,6 °C 2,2 °C 84 % 1021,2 hPa 0,0 l/m² 0 min 0 W/m² 3,2 km/h (1 Bft) 100,00 %
09.03.2026 05:28 7,0 °C 5,6 °C 2,2 °C 84 % 1021,3 hPa 0,0 l/m² 0 min 0 W/m² 6,4 km/h (2 Bft) 100,00 %
09.03.2026 05:30 7,0 °C 5,6 °C 2,2 °C 85 % 1021,2 hPa 0,0 l/m² 0 min 0 W/m² 3,2 km/h (1 Bft) 97,87 %
09.03.2026 05:32 7,0 °C 5,6 °C 2,2 °C 85 % 1021,2 hPa 0,0 l/m² 0 min 0 W/m² 3,2 km/h (1 Bft) 97,83 %
09.03.2026 05:34 6,9 °C 5,6 °C 2,2 °C 85 % 1021,2 hPa 0,0 l/m² 0 min 0 W/m² 3,2 km/h (1 Bft) 100,00 %
09.03.2026 05:36 6,9 °C 5,6 °C 2,2 °C 85 % 1021,2 hPa 0,0 l/m² 0 min 0 W/m² 3,2 km/h (1 Bft) 100,00 %
09.03.2026 05:38 6,9 °C 5,6 °C 2,2 °C 85 % 1021,3 hPa 0,0 l/m² 0 min 0 W/m² 3,2 km/h (1 Bft) 100,00 %
09.03.2026 05:40 6,9 °C 5,6 °C 2,2 °C 85 % 1021,2 hPa 0,0 l/m² 0 min 0 W/m² 3,2 km/h (1 Bft) 100,00 %
09.03.2026 05:42 6,8 °C 5,6 °C 2,2 °C 85 % 1021,2 hPa 0,0 l/m² 0 min 0 W/m² 3,2 km/h (1 Bft) 100,00 %
09.03.2026 05:44 6,8 °C 5,6 °C 2,2 °C 85 % 1021,2 hPa 0,0 l/m² 0 min 0 W/m² 3,2 km/h (1 Bft) 100,00 %
09.03.2026 05:46 6,8 °C 5,6 °C 2,2 °C 85 % 1021,2 hPa 0,0 l/m² 0 min 0 W/m² 3,2 km/h (1 Bft) 100,00 %
09.03.2026 05:48 6,8 °C 5,6 °C 2,2 °C 85 % 1021,2 hPa 0,0 l/m² 0 min 0 W/m² 3,2 km/h (1 Bft) 100,00 %
09.03.2026 05:50 6,8 °C 5,6 °C 2,2 °C 85 % 1021,3 hPa 0,0 l/m² 0 min 0 W/m² 3,2 km/h (1 Bft) 100,00 %
09.03.2026 05:52 6,8 °C 5,6 °C 2,2 °C 85 % 1021,3 hPa 0,0 l/m² 0 min 0 W/m² 6,4 km/h (2 Bft) 100,00 %
09.03.2026 05:54 6,8 °C 5,6 °C 2,2 °C 86 % 1021,3 hPa 0,0 l/m² 0 min 0 W/m² 6,4 km/h (2 Bft) 97,87 %
09.03.2026 05:56 6,7 °C 5,6 °C 2,2 °C 86 % 1021,3 hPa 0,0 l/m² 0 min 0 W/m² 6,4 km/h (2 Bft) 100,00 %
09.03.2026 05:58 6,7 °C 5,6 °C 2,2 °C 86 % 1021,3 hPa 0,0 l/m² 0 min 0 W/m² 6,4 km/h (2 Bft) 95,74 %
09.03.2026 06:00 6,7 °C 5,6 °C 2,2 °C 86 % 1021,2 hPa 0,0 l/m² 0 min 0 W/m² 3,2 km/h (1 Bft) 100,00 %
09.03.2026 06:02 6,7 °C 5,6 °C 2,2 °C 86 % 1021,3 hPa 0,0 l/m² 0 min 0 W/m² 3,2 km/h (1 Bft) 97,92 %
09.03.2026 06:04 6,7 °C 5,6 °C 2,2 °C 86 % 1021,3 hPa 0,0 l/m² 0 min 0 W/m² 12,9 km/h (3 Bft) 97,30 %
09.03.2026 06:07 6,6 °C 5,6 °C 2,2 °C 86 % 1021,2 hPa 0,0 l/m² 0 min 0 W/m² 6,4 km/h (2 Bft) 98,73 %
09.03.2026 06:10 6,6 °C 5,6 °C 2,2 °C 86 % 1021,2 hPa 0,0 l/m² 0 min 0 W/m² 6,4 km/h (2 Bft) 98,23 %
09.03.2026 06:12 6,6 °C 5,6 °C 2,2 °C 86 % 1021,2 hPa 0,0 l/m² 0 min 0 W/m² 6,4 km/h (2 Bft) 96,92 %
09.03.2026 06:14 6,6 °C 5,6 °C 2,2 °C 86 % 1021,2 hPa 0,0 l/m² 0 min 0 W/m² 6,4 km/h (2 Bft) 97,87 %
09.03.2026 06:16 6,6 °C 5,6 °C 2,2 °C 86 % 1021,2 hPa 0,0 l/m² 0 min 0 W/m² 6,4 km/h (2 Bft) 94,00 %
09.03.2026 06:18 6,6 °C 5,6 °C 2,2 °C 86 % 1021,2 hPa 0,0 l/m² 0 min 0 W/m² 6,4 km/h (2 Bft) 95,83 %
09.03.2026 06:20 6,6 °C 5,6 °C 2,2 °C 87 % 1021,2 hPa 0,0 l/m² 0 min 0 W/m² 6,4 km/h (2 Bft) 94,29 %
09.03.2026 06:22 6,6 °C 5,6 °C 2,2 °C 87 % 1021,2 hPa 0,0 l/m² 0 min 0 W/m² 3,2 km/h (1 Bft) 96,30 %
09.03.2026 06:24 6,5 °C 5,6 °C 2,2 °C 87 % 1021,2 hPa 0,0 l/m² 0 min 0 W/m² 6,4 km/h (2 Bft) 96,00 %
09.03.2026 06:26 6,5 °C 5,6 °C 2,2 °C 87 % 1021,2 hPa 0,0 l/m² 0 min 0 W/m² 6,4 km/h (2 Bft) 95,92 %
09.03.2026 06:28 6,5 °C 5,6 °C 2,2 °C 87 % 1021,2 hPa 0,0 l/m² 0 min 0 W/m² 6,4 km/h (2 Bft) 94,29 %
09.03.2026 06:30 6,5 °C 5,6 °C 2,2 °C 87 % 1021,2 hPa 0,0 l/m² 0 min 0 W/m² 12,9 km/h (3 Bft) 94,44 %
09.03.2026 06:32 6,5 °C 5,6 °C 2,2 °C 87 % 1021,2 hPa 0,0 l/m² 0 min 0 W/m² 6,4 km/h (2 Bft) 93,88 %
09.03.2026 06:34 6,5 °C 5,6 °C 2,2 °C 87 % 1021,2 hPa 0,0 l/m² 0 min 0 W/m² 6,4 km/h (2 Bft) 93,88 %
09.03.2026 06:36 6,5 °C 5,6 °C 2,2 °C 87 % 1021,2 hPa 0,0 l/m² 0 min 0 W/m² 6,4 km/h (2 Bft) 95,74 %
09.03.2026 06:38 6,5 °C 5,6 °C 2,2 °C 87 % 1021,2 hPa 0,0 l/m² 0 min 0 W/m² 6,4 km/h (2 Bft) 91,43 %
09.03.2026 06:40 6,4 °C 5,6 °C 2,2 °C 87 % 1021,2 hPa 0,0 l/m² 0 min 0 W/m² 6,4 km/h (2 Bft) 94,44 %
09.03.2026 06:42 6,4 °C 5,6 °C 2,2 °C 87 % 1021,2 hPa 0,0 l/m² 0 min 0 W/m² 3,2 km/h (1 Bft) 90,00 %
09.03.2026 06:44 6,4 °C 5,6 °C 2,2 °C 87 % 1021,2 hPa 0,0 l/m² 0 min 0 W/m² 6,4 km/h (2 Bft) 95,83 %
09.03.2026 06:46 6,4 °C 5,6 °C 2,2 °C 87 % 1021,2 hPa 0,0 l/m² 0 min 0 W/m² 6,4 km/h (2 Bft) 94,29 %
09.03.2026 06:48 6,4 °C 5,6 °C 2,2 °C 87 % 1021,2 hPa 0,0 l/m² 0 min 0 W/m² 12,9 km/h (3 Bft) 94,44 %
09.03.2026 06:50 6,4 °C 5,6 °C 2,2 °C 87 % 1021,2 hPa 0,0 l/m² 0 min 0 W/m² 6,4 km/h (2 Bft) 96,00 %
09.03.2026 06:52 6,4 °C 5,6 °C 2,2 °C 87 % 1021,1 hPa 0,0 l/m² 0 min 0 W/m² 6,4 km/h (2 Bft) 95,83 %
09.03.2026 06:54 6,4 °C 5,6 °C 2,2 °C 87 % 1021,1 hPa 0,0 l/m² 0 min 0 W/m² 6,4 km/h (2 Bft) 94,29 %
09.03.2026 06:56 6,3 °C 5,6 °C 2,2 °C 87 % 1021,2 hPa 0,0 l/m² 0 min 0 W/m² 9,7 km/h (2 Bft) 96,30 %
09.03.2026 06:58 6,3 °C 5,6 °C 2,2 °C 87 % 1021,2 hPa 0,0 l/m² 0 min 0 W/m² 9,7 km/h (2 Bft) 96,00 %
09.03.2026 07:00 6,3 °C 5,6 °C 2,2 °C 87 % 1021,2 hPa 0,0 l/m² 0 min 0 W/m² 12,9 km/h (3 Bft) 95,92 %
09.03.2026 07:02 6,3 °C 5,6 °C 2,2 °C 88 % 1021,2 hPa 0,0 l/m² 0 min 0 W/m² 12,9 km/h (3 Bft) 94,29 %
09.03.2026 07:04 6,3 °C 5,6 °C 2,2 °C 88 % 1021,3 hPa 0,0 l/m² 0 min 4 W/m² 6,4 km/h (2 Bft) 100,00 %
09.03.2026 07:06 6,3 °C 5,6 °C 2,2 °C 88 % 1021,2 hPa 0,0 l/m² 0 min 5 W/m² 6,4 km/h (2 Bft) 95,65 %
09.03.2026 07:08 6,3 °C 5,6 °C 2,2 °C 88 % 1021,2 hPa 0,0 l/m² 0 min 6 W/m² 3,2 km/h (1 Bft) 98,11 %
09.03.2026 07:10 6,3 °C 5,6 °C 2,2 °C 88 % 1021,2 hPa 0,0 l/m² 0 min 7 W/m² 6,4 km/h (2 Bft) 100,00 %
09.03.2026 07:12 6,3 °C 5,6 °C 2,2 °C 88 % 1021,3 hPa 0,0 l/m² 0 min 9 W/m² 6,4 km/h (2 Bft) 98,00 %
09.03.2026 07:14 6,3 °C 5,6 °C 2,2 °C 88 % 1021,3 hPa 0,0 l/m² 0 min 9 W/m² 3,2 km/h (1 Bft) 100,00 %
09.03.2026 07:16 6,3 °C 5,6 °C 2,2 °C 88 % 1021,3 hPa 0,0 l/m² 0 min 11 W/m² 3,2 km/h (1 Bft) 100,00 %
09.03.2026 07:18 6,3 °C 5,6 °C 2,2 °C 88 % 1021,3 hPa 0,0 l/m² 0 min 12 W/m² 6,4 km/h (2 Bft) 100,00 %
09.03.2026 07:20 6,2 °C 5,6 °C 2,2 °C 88 % 1021,2 hPa 0,0 l/m² 0 min 12 W/m² 6,4 km/h (2 Bft) 100,00 %
09.03.2026 07:22 6,2 °C 5,6 °C 2,2 °C 88 % 1021,3 hPa 0,0 l/m² 0 min 14 W/m² 6,4 km/h (2 Bft) 98,00 %
09.03.2026 07:24 6,2 °C 5,6 °C 2,2 °C 88 % 1021,3 hPa 0,0 l/m² 0 min 16 W/m² 6,4 km/h (2 Bft) 98,00 %
09.03.2026 07:26 6,2 °C 5,6 °C 2,2 °C 88 % 1021,3 hPa 0,0 l/m² 0 min 17 W/m² 3,2 km/h (1 Bft) 100,00 %
09.03.2026 07:28 6,2 °C 5,6 °C 2,2 °C 88 % 1021,3 hPa 0,0 l/m² 0 min 18 W/m² 6,4 km/h (2 Bft) 100,00 %
09.03.2026 07:30 6,2 °C 5,6 °C 2,2 °C 88 % 1021,3 hPa 0,0 l/m² 0 min 20 W/m² 6,4 km/h (2 Bft) 100,00 %
09.03.2026 07:32 6,2 °C 5,6 °C 2,2 °C 88 % 1021,3 hPa 0,0 l/m² 0 min 21 W/m² 6,4 km/h (2 Bft) 100,00 %
09.03.2026 07:34 6,2 °C 5,6 °C 2,2 °C 88 % 1021,3 hPa 0,0 l/m² 0 min 23 W/m² 6,4 km/h (2 Bft) 100,00 %
09.03.2026 07:36 6,2 °C 5,6 °C 2,2 °C 88 % 1021,3 hPa 0,0 l/m² 0 min 25 W/m² 9,7 km/h (2 Bft) 98,11 %
09.03.2026 07:38 6,2 °C 5,6 °C 2,2 °C 88 % 1021,4 hPa 0,0 l/m² 0 min 26 W/m² 6,4 km/h (2 Bft) 100,00 %
09.03.2026 07:40 6,2 °C 5,6 °C 2,2 °C 88 % 1021,4 hPa 0,0 l/m² 0 min 28 W/m² 3,2 km/h (1 Bft) 100,00 %
09.03.2026 07:42 6,2 °C 5,6 °C 2,2 °C 88 % 1021,4 hPa 0,0 l/m² 0 min 30 W/m² 6,4 km/h (2 Bft) 100,00 %
09.03.2026 07:44 6,2 °C 5,6 °C 2,2 °C 88 % 1021,4 hPa 0,0 l/m² 0 min 31 W/m² 3,2 km/h (1 Bft) 100,00 %
09.03.2026 07:46 6,2 °C 5,6 °C 2,2 °C 88 % 1021,4 hPa 0,0 l/m² 0 min 33 W/m² 3,2 km/h (1 Bft) 98,00 %
09.03.2026 07:48 6,2 °C 5,6 °C 2,2 °C 88 % 1021,4 hPa 0,0 l/m² 0 min 34 W/m² 3,2 km/h (1 Bft) 100,00 %
09.03.2026 07:50 6,2 °C 5,6 °C 2,2 °C 88 % 1021,4 hPa 0,0 l/m² 0 min 36 W/m² 6,4 km/h (2 Bft) 100,00 %
09.03.2026 07:52 6,2 °C 6,1 °C 2,2 °C 88 % 1021,4 hPa 0,0 l/m² 0 min 38 W/m² 6,4 km/h (2 Bft) 98,11 %
09.03.2026 07:54 6,2 °C 6,1 °C 2,2 °C 88 % 1021,5 hPa 0,0 l/m² 0 min 40 W/m² 3,2 km/h (1 Bft) 97,96 %
09.03.2026 07:56 6,2 °C 6,1 °C 2,2 °C 89 % 1021,5 hPa 0,0 l/m² 0 min 42 W/m² 3,2 km/h (1 Bft) 96,00 %
09.03.2026 07:58 6,3 °C 6,1 °C 2,2 °C 89 % 1021,5 hPa 0,0 l/m² 0 min 43 W/m² 3,2 km/h (1 Bft) 100,00 %
09.03.2026 08:00 6,3 °C 6,1 °C 2,2 °C 89 % 1021,5 hPa 0,0 l/m² 0 min 45 W/m² 3,2 km/h (1 Bft) 100,00 %
09.03.2026 08:02 6,3 °C 6,1 °C 2,2 °C 89 % 1021,5 hPa 0,0 l/m² 0 min 46 W/m² 3,2 km/h (1 Bft) 100,00 %
09.03.2026 08:04 6,3 °C 6,1 °C 2,2 °C 89 % 1021,5 hPa 0,0 l/m² 0 min 48 W/m² 3,2 km/h (1 Bft) 97,96 %
09.03.2026 08:06 6,3 °C 6,1 °C 2,2 °C 89 % 1021,5 hPa 0,0 l/m² 0 min 49 W/m² 3,2 km/h (1 Bft) 97,96 %
09.03.2026 08:08 6,3 °C 6,1 °C 2,8 °C 89 % 1021,5 hPa 0,0 l/m² 0 min 52 W/m² 3,2 km/h (1 Bft) 100,00 %
09.03.2026 08:10 6,3 °C 6,1 °C 2,8 °C 89 % 1021,5 hPa 0,0 l/m² 0 min 53 W/m² 3,2 km/h (1 Bft) 100,00 %
09.03.2026 08:12 6,3 °C 6,1 °C 2,8 °C 89 % 1021,5 hPa 0,0 l/m² 0 min 54 W/m² 12,9 km/h (3 Bft) 96,23 %
09.03.2026 08:14 6,3 °C 6,1 °C 2,8 °C 89 % 1021,6 hPa 0,0 l/m² 0 min 56 W/m² 6,4 km/h (2 Bft) 93,62 %
09.03.2026 08:16 6,4 °C 6,7 °C 2,8 °C 89 % 1021,6 hPa 0,0 l/m² 0 min 58 W/m² 6,4 km/h (2 Bft) 96,00 %
09.03.2026 08:18 6,4 °C 6,7 °C 2,8 °C 89 % 1021,6 hPa 0,0 l/m² 0 min 60 W/m² 6,4 km/h (2 Bft) 100,00 %
09.03.2026 08:20 6,4 °C 6,7 °C 2,8 °C 89 % 1021,6 hPa 0,0 l/m² 0 min 62 W/m² 6,4 km/h (2 Bft) 100,00 %
09.03.2026 08:22 6,4 °C 6,7 °C 2,8 °C 89 % 1021,6 hPa 0,0 l/m² 0 min 63 W/m² 9,7 km/h (2 Bft) 96,23 %
09.03.2026 08:24 6,5 °C 6,7 °C 2,8 °C 89 % 1021,6 hPa 0,0 l/m² 0 min 65 W/m² 6,4 km/h (2 Bft) 92,00 %
09.03.2026 08:26 6,5 °C 6,7 °C 2,8 °C 89 % 1021,6 hPa 0,0 l/m² 0 min 67 W/m² 6,4 km/h (2 Bft) 97,37 %
09.03.2026 08:28 6,5 °C 6,7 °C 2,8 °C 89 % 1021,6 hPa 0,0 l/m² 0 min 69 W/m² 3,2 km/h (1 Bft) 95,65 %
09.03.2026 08:30 6,5 °C 6,7 °C 2,8 °C 89 % 1021,5 hPa 0,0 l/m² 0 min 70 W/m² 12,9 km/h (3 Bft) 94,34 %
09.03.2026 08:32 6,6 °C 6,7 °C 2,8 °C 89 % 1021,5 hPa 0,0 l/m² 0 min 72 W/m² 6,4 km/h (2 Bft) 94,00 %
09.03.2026 08:34 6,6 °C 6,7 °C 2,8 °C 89 % 1021,5 hPa 0,0 l/m² 0 min 73 W/m² 9,7 km/h (2 Bft) 97,37 %
09.03.2026 08:36 6,6 °C 7,2 °C 2,8 °C 89 % 1021,5 hPa 0,0 l/m² 0 min 75 W/m² 6,4 km/h (2 Bft) 95,74 %
09.03.2026 08:38 6,7 °C 7,2 °C 2,8 °C 89 % 1021,6 hPa 0,0 l/m² 0 min 76 W/m² 6,4 km/h (2 Bft) 94,34 %
09.03.2026 08:40 6,7 °C 7,2 °C 3,3 °C 89 % 1021,6 hPa 0,0 l/m² 0 min 78 W/m² 6,4 km/h (2 Bft) 95,92 %
09.03.2026 08:42 6,7 °C 7,2 °C 3,3 °C 89 % 1021,5 hPa 0,0 l/m² 0 min 79 W/m² 6,4 km/h (2 Bft) 92,11 %
09.03.2026 08:44 6,8 °C 7,2 °C 3,3 °C 89 % 1021,5 hPa 0,0 l/m² 0 min 82 W/m² 12,9 km/h (3 Bft) 95,74 %
09.03.2026 08:46 6,8 °C 7,2 °C 3,3 °C 89 % 1021,5 hPa 0,0 l/m² 2 min 140 W/m² 3,2 km/h (1 Bft) 94,34 %
09.03.2026 08:48 6,8 °C 7,8 °C 3,3 °C 89 % 1021,5 hPa 0,0 l/m² 2 min 166 W/m² 6,4 km/h (2 Bft) 96,00 %
09.03.2026 08:50 6,9 °C 7,8 °C 3,3 °C 89 % 1021,6 hPa 0,0 l/m² 2 min 171 W/m² 3,2 km/h (1 Bft) 94,59 %
09.03.2026 08:52 6,9 °C 8,3 °C 3,3 °C 89 % 1021,5 hPa 0,0 l/m² 2 min 168 W/m² 3,2 km/h (1 Bft) 93,62 %
09.03.2026 08:54 7,1 °C 9,4 °C 3,3 °C 89 % 1021,5 hPa 0,0 l/m² 2 min 156 W/m² 6,4 km/h (2 Bft) 96,23 %
09.03.2026 08:56 7,1 °C 10,0 °C 3,9 °C 89 % 1021,5 hPa 0,0 l/m² 2 min 166 W/m² 6,4 km/h (2 Bft) 96,00 %
09.03.2026 08:58 7,2 °C 10,6 °C 3,9 °C 89 % 1021,6 hPa 0,0 l/m² 0 min 135 W/m² 9,7 km/h (2 Bft) 97,37 %
09.03.2026 09:00 7,3 °C 11,1 °C 3,9 °C 89 % 1021,6 hPa 0,0 l/m² 2 min 149 W/m² 12,9 km/h (3 Bft) 93,62 %
09.03.2026 09:02 7,4 °C 11,7 °C 3,9 °C 89 % 1021,5 hPa 0,0 l/m² 2 min 161 W/m² 9,7 km/h (2 Bft) 98,11 %
09.03.2026 09:04 7,5 °C 11,1 °C 3,9 °C 89 % 1021,5 hPa 0,0 l/m² 2 min 171 W/m² 9,7 km/h (2 Bft) 97,96 %
09.03.2026 09:06 7,6 °C 11,1 °C 3,9 °C 88 % 1021,6 hPa 0,0 l/m² 2 min 202 W/m² 3,2 km/h (1 Bft) 98,00 %
09.03.2026 09:08 7,7 °C 11,1 °C 4,4 °C 88 % 1021,6 hPa 0,0 l/m² 2 min 212 W/m² 6,4 km/h (2 Bft) 97,87 %
09.03.2026 09:10 7,8 °C 11,1 °C 4,4 °C 88 % 1021,6 hPa 0,0 l/m² 2 min 217 W/m² 6,4 km/h (2 Bft) 91,43 %
09.03.2026 09:12 7,9 °C 11,1 °C 4,4 °C 88 % 1021,6 hPa 0,0 l/m² 2 min 221 W/m² 3,2 km/h (1 Bft) 95,92 %
09.03.2026 09:14 8,0 °C 10,6 °C 4,4 °C 88 % 1021,6 hPa 0,0 l/m² 2 min 220 W/m² 6,4 km/h (2 Bft) 93,48 %
09.03.2026 09:16 8,1 °C 11,1 °C 4,4 °C 88 % 1021,6 hPa 0,0 l/m² 2 min 188 W/m² 3,2 km/h (1 Bft) 96,30 %
09.03.2026 09:18 8,2 °C 11,1 °C 4,4 °C 87 % 1021,6 hPa 0,0 l/m² 2 min 183 W/m² 6,4 km/h (2 Bft) 100,00 %
09.03.2026 09:20 8,3 °C 11,1 °C 5,0 °C 87 % 1021,7 hPa 0,0 l/m² 2 min 226 W/m² 6,4 km/h (2 Bft) 97,96 %
09.03.2026 09:22 8,4 °C 11,7 °C 5,0 °C 87 % 1021,6 hPa 0,0 l/m² 0 min 166 W/m² 6,4 km/h (2 Bft) 97,87 %
09.03.2026 09:24 8,5 °C 11,7 °C 5,0 °C 87 % 1021,7 hPa 0,0 l/m² 2 min 181 W/m² 3,2 km/h (1 Bft) 94,44 %
09.03.2026 09:26 8,6 °C 12,2 °C 5,0 °C 86 % 1021,6 hPa 0,0 l/m² 2 min 195 W/m² 6,4 km/h (2 Bft) 97,37 %
09.03.2026 09:28 8,7 °C 12,2 °C 5,0 °C 86 % 1021,6 hPa 0,0 l/m² 2 min 231 W/m² 6,4 km/h (2 Bft) 95,83 %
09.03.2026 09:30 8,8 °C 12,2 °C 5,0 °C 86 % 1021,6 hPa 0,0 l/m² 2 min 223 W/m² 6,4 km/h (2 Bft) 95,74 %
09.03.2026 09:32 8,9 °C 12,2 °C 5,0 °C 85 % 1021,6 hPa 0,0 l/m² 2 min 261 W/m² 6,4 km/h (2 Bft) 96,30 %
09.03.2026 09:34 9,1 °C 12,8 °C 5,6 °C 85 % 1021,6 hPa 0,0 l/m² 2 min 252 W/m² 6,4 km/h (2 Bft) 97,37 %
09.03.2026 09:36 9,2 °C 13,3 °C 5,6 °C 85 % 1021,6 hPa 0,0 l/m² 2 min 233 W/m² 3,2 km/h (1 Bft) 97,96 %
09.03.2026 09:38 9,3 °C 13,3 °C 5,6 °C 85 % 1021,6 hPa 0,0 l/m² 2 min 213 W/m² 6,4 km/h (2 Bft) 97,83 %
09.03.2026 09:40 9,4 °C 13,9 °C 5,6 °C 85 % 1021,6 hPa 0,0 l/m² 2 min 223 W/m² 12,9 km/h (3 Bft) 96,30 %
09.03.2026 09:42 9,5 °C 14,4 °C 5,6 °C 84 % 1021,7 hPa 0,0 l/m² 0 min 175 W/m² 6,4 km/h (2 Bft) 100,00 %
09.03.2026 09:47 9,8 °C 13,9 °C 5,6 °C 83 % 1021,7 hPa 0,0 l/m² 0 min 178 W/m² 6,4 km/h (2 Bft) 95,00 %
09.03.2026 09:48 9,8 °C 13,9 °C 5,6 °C 83 % 1021,7 hPa 0,0 l/m² 1 min 201 W/m² 12,9 km/h (3 Bft) 95,65 %
09.03.2026 09:50 9,9 °C 13,3 °C 5,6 °C 83 % 1021,6 hPa 0,0 l/m² 0 min 175 W/m² 12,9 km/h (3 Bft) 97,87 %
09.03.2026 09:52 10,0 °C 13,3 °C 5,6 °C 83 % 1021,6 hPa 0,0 l/m² 0 min 161 W/m² 9,7 km/h (2 Bft) 100,00 %
09.03.2026 09:54 10,1 °C 13,3 °C 5,6 °C 82 % 1021,6 hPa 0,0 l/m² 2 min 198 W/m² 12,9 km/h (3 Bft) 94,74 %
09.03.2026 09:56 10,2 °C 13,9 °C 6,7 °C 82 % 1021,6 hPa 0,0 l/m² 2 min 277 W/m² 6,4 km/h (2 Bft) 97,96 %
09.03.2026 09:58 10,3 °C 13,9 °C 6,7 °C 82 % 1021,6 hPa 0,0 l/m² 2 min 279 W/m² 6,4 km/h (2 Bft) 100,00 %
09.03.2026 10:00 10,4 °C 13,3 °C 6,7 °C 82 % 1021,6 hPa 0,0 l/m² 2 min 271 W/m² 9,7 km/h (2 Bft) 100,00 %
09.03.2026 10:02 10,5 °C 13,9 °C 6,7 °C 82 % 1021,7 hPa 0,0 l/m² 2 min 332 W/m² 6,4 km/h (2 Bft) 97,37 %
09.03.2026 10:04 10,6 °C 14,4 °C 7,2 °C 82 % 1021,7 hPa 0,0 l/m² 2 min 328 W/m² 9,7 km/h (2 Bft) 97,96 %
09.03.2026 10:06 10,7 °C 15,0 °C 7,8 °C 81 % 1021,6 hPa 0,0 l/m² 2 min 326 W/m² 6,4 km/h (2 Bft) 100,00 %
09.03.2026 10:08 10,8 °C 15,6 °C 7,8 °C 81 % 1021,7 hPa 0,0 l/m² 2 min 328 W/m² 6,4 km/h (2 Bft) 100,00 %
09.03.2026 10:10 10,9 °C 15,6 °C 8,3 °C 81 % 1021,7 hPa 0,0 l/m² 2 min 307 W/m² 6,4 km/h (2 Bft) 100,00 %
09.03.2026 10:12 11,0 °C 15,0 °C 8,3 °C 81 % 1021,7 hPa 0,0 l/m² 2 min 281 W/m² 6,4 km/h (2 Bft) 100,00 %
09.03.2026 10:14 11,1 °C 14,4 °C 8,3 °C 81 % 1021,6 hPa 0,0 l/m² 2 min 254 W/m² 16,1 km/h (3 Bft) 100,00 %
09.03.2026 10:16 11,2 °C 14,4 °C 8,9 °C 80 % 1021,6 hPa 0,0 l/m² 2 min 310 W/m² 12,9 km/h (3 Bft) 100,00 %
09.03.2026 10:18 11,3 °C 14,4 °C 9,4 °C 80 % 1021,7 hPa 0,0 l/m² 2 min 334 W/m² 6,4 km/h (2 Bft) 100,00 %
09.03.2026 10:20 11,4 °C 15,0 °C 10,0 °C 80 % 1021,6 hPa 0,0 l/m² 0 min 211 W/m² 6,4 km/h (2 Bft) 97,87 %
09.03.2026 10:22 11,5 °C 15,0 °C 10,0 °C 79 % 1021,6 hPa 0,0 l/m² 2 min 226 W/m² 9,7 km/h (2 Bft) 100,00 %
09.03.2026 10:24 11,6 °C 16,1 °C 10,6 °C 79 % 1021,6 hPa 0,0 l/m² 2 min 293 W/m² 6,4 km/h (2 Bft) 100,00 %
09.03.2026 10:26 11,7 °C 17,2 °C 11,1 °C 79 % 1021,5 hPa 0,0 l/m² 2 min 353 W/m² 3,2 km/h (1 Bft) 100,00 %
09.03.2026 10:28 11,8 °C 17,2 °C 11,1 °C 78 % 1021,5 hPa 0,0 l/m² 2 min 295 W/m² 12,9 km/h (3 Bft) 100,00 %
09.03.2026 10:30 11,9 °C 17,2 °C 11,7 °C 78 % 1021,5 hPa 0,0 l/m² 0 min 220 W/m² 6,4 km/h (2 Bft) 100,00 %
09.03.2026 10:32 12,0 °C 17,2 °C 11,7 °C 78 % 1021,5 hPa 0,0 l/m² 2 min 281 W/m² 9,7 km/h (2 Bft) 100,00 %
09.03.2026 10:34 12,1 °C 18,3 °C 12,2 °C 78 % 1021,5 hPa 0,0 l/m² 2 min 308 W/m² 9,7 km/h (2 Bft) 97,87 %
09.03.2026 10:36 12,2 °C 18,3 °C 12,2 °C 78 % 1021,5 hPa 0,0 l/m² 2 min 268 W/m² 6,4 km/h (2 Bft) 97,83 %
09.03.2026 10:38 12,3 °C 19,4 °C 12,8 °C 77 % 1021,5 hPa 0,0 l/m² 2 min 263 W/m² 6,4 km/h (2 Bft) 95,74 %
09.03.2026 10:40 12,4 °C 20,6 °C 13,3 °C 77 % 1021,5 hPa 0,0 l/m² 2 min 306 W/m² 3,2 km/h (1 Bft) 97,87 %
09.03.2026 10:42 12,6 °C 20,0 °C 13,3 °C 77 % 1021,5 hPa 0,0 l/m² 2 min 271 W/m² 6,4 km/h (2 Bft) 97,87 %
09.03.2026 10:44 12,7 °C 20,6 °C 13,9 °C 76 % 1021,4 hPa 0,0 l/m² 2 min 304 W/m² 3,2 km/h (1 Bft) 95,74 %
09.03.2026 10:46 12,8 °C 20,6 °C 13,9 °C 76 % 1021,5 hPa 0,0 l/m² 2 min 326 W/m² 6,4 km/h (2 Bft) 95,74 %
09.03.2026 10:48 13,0 °C 21,1 °C 14,4 °C 76 % 1021,4 hPa 0,0 l/m² 2 min 278 W/m² 6,4 km/h (2 Bft) 97,83 %
09.03.2026 10:50 13,2 °C 21,7 °C 14,4 °C 76 % 1021,4 hPa 0,0 l/m² 2 min 280 W/m² 3,2 km/h (1 Bft) 97,87 %
09.03.2026 10:52 13,3 °C 20,6 °C 14,4 °C 75 % 1021,4 hPa 0,0 l/m² 2 min 295 W/m² 12,9 km/h (3 Bft) 95,74 %
09.03.2026 10:54 13,4 °C 20,6 °C 14,4 °C 74 % 1021,4 hPa 0,0 l/m² 2 min 336 W/m² 9,7 km/h (2 Bft) 97,87 %
09.03.2026 10:56 13,5 °C 20,6 °C 14,4 °C 74 % 1021,4 hPa 0,0 l/m² 2 min 335 W/m² 12,9 km/h (3 Bft) 95,74 %
09.03.2026 10:58 13,6 °C 21,7 °C 14,4 °C 74 % 1021,4 hPa 0,0 l/m² 2 min 320 W/m² 6,4 km/h (2 Bft) 97,83 %
09.03.2026 11:00 13,7 °C 22,2 °C 15,0 °C 74 % 1021,3 hPa 0,0 l/m² 2 min 371 W/m² 6,4 km/h (2 Bft) 97,87 %
09.03.2026 11:02 13,8 °C 22,2 °C 15,0 °C 74 % 1021,4 hPa 0,0 l/m² 2 min 380 W/m² 12,9 km/h (3 Bft) 95,74 %
09.03.2026 11:04 13,9 °C 22,2 °C 15,6 °C 73 % 1021,4 hPa 0,0 l/m² 2 min 374 W/m² 9,7 km/h (2 Bft) 97,92 %
09.03.2026 11:06 14,1 °C 22,8 °C 15,6 °C 73 % 1021,3 hPa 0,0 l/m² 2 min 399 W/m² 6,4 km/h (2 Bft) 100,00 %
09.03.2026 11:08 14,2 °C 23,3 °C 16,1 °C 73 % 1021,4 hPa 0,0 l/m² 2 min 466 W/m² 9,7 km/h (2 Bft) 100,00 %
09.03.2026 11:10 14,3 °C 23,3 °C 16,1 °C 73 % 1021,3 hPa 0,0 l/m² 2 min 468 W/m² 12,9 km/h (3 Bft) 100,00 %
09.03.2026 11:12 14,3 °C 22,8 °C 16,1 °C 72 % 1021,3 hPa 0,0 l/m² 2 min 472 W/m² 9,7 km/h (2 Bft) 100,00 %
09.03.2026 11:14 14,5 °C 22,8 °C 16,1 °C 72 % 1021,3 hPa 0,0 l/m² 2 min 471 W/m² 9,7 km/h (2 Bft) 100,00 %
09.03.2026 11:16 14,6 °C 23,3 °C 16,1 °C 72 % 1021,3 hPa 0,0 l/m² 2 min 475 W/m² 9,7 km/h (2 Bft) 100,00 %
09.03.2026 11:18 14,7 °C 23,3 °C 16,1 °C 72 % 1021,3 hPa 0,0 l/m² 2 min 478 W/m² 12,9 km/h (3 Bft) 97,87 %
09.03.2026 11:20 14,8 °C 23,3 °C 16,1 °C 71 % 1021,3 hPa 0,0 l/m² 2 min 482 W/m² 6,4 km/h (2 Bft) 100,00 %
09.03.2026 11:22 14,9 °C 22,8 °C 16,1 °C 71 % 1021,3 hPa 0,0 l/m² 2 min 483 W/m² 9,7 km/h (2 Bft) 100,00 %
09.03.2026 11:24 15,0 °C 23,3 °C 16,1 °C 71 % 1021,3 hPa 0,0 l/m² 2 min 487 W/m² 12,9 km/h (3 Bft) 100,00 %
09.03.2026 11:26 15,1 °C 23,3 °C 16,7 °C 71 % 1021,3 hPa 0,0 l/m² 2 min 487 W/m² 6,4 km/h (2 Bft) 100,00 %
09.03.2026 11:28 15,2 °C 23,9 °C 17,2 °C 71 % 1021,3 hPa 0,0 l/m² 2 min 486 W/m² 9,7 km/h (2 Bft) 100,00 %
09.03.2026 11:30 15,3 °C 23,3 °C 16,1 °C 71 % 1021,2 hPa 0,0 l/m² 2 min 487 W/m² 6,4 km/h (2 Bft) 97,87 %
09.03.2026 11:32 15,4 °C 23,9 °C 17,2 °C 70 % 1021,2 hPa 0,0 l/m² 2 min 490 W/m² 6,4 km/h (2 Bft) 100,00 %
09.03.2026 11:34 15,5 °C 23,9 °C 17,2 °C 70 % 1021,3 hPa 0,0 l/m² 2 min 492 W/m² 9,7 km/h (2 Bft) 100,00 %
09.03.2026 11:36 15,6 °C 23,9 °C 17,2 °C 70 % 1021,2 hPa 0,0 l/m² 2 min 493 W/m² 9,7 km/h (2 Bft) 100,00 %
09.03.2026 11:38 15,6 °C 23,3 °C 17,2 °C 70 % 1021,2 hPa 0,0 l/m² 2 min 496 W/m² 6,4 km/h (2 Bft) 97,87 %
09.03.2026 11:40 15,7 °C 23,3 °C 17,2 °C 69 % 1021,2 hPa 0,0 l/m² 2 min 499 W/m² 12,9 km/h (3 Bft) 97,87 %
09.03.2026 11:42 15,7 °C 23,3 °C 17,2 °C 69 % 1021,2 hPa 0,0 l/m² 2 min 504 W/m² 12,9 km/h (3 Bft) 95,74 %
09.03.2026 11:44 15,8 °C 23,3 °C 17,2 °C 69 % 1021,2 hPa 0,0 l/m² 2 min 505 W/m² 12,9 km/h (3 Bft) 97,87 %
09.03.2026 11:46 15,8 °C 22,8 °C 16,7 °C 69 % 1021,2 hPa 0,0 l/m² 2 min 508 W/m² 9,7 km/h (2 Bft) 97,83 %
09.03.2026 11:48 15,9 °C 23,3 °C 17,2 °C 69 % 1021,2 hPa 0,0 l/m² 2 min 511 W/m² 6,4 km/h (2 Bft) 97,87 %
09.03.2026 11:50 15,9 °C 23,3 °C 17,2 °C 69 % 1021,1 hPa 0,0 l/m² 2 min 513 W/m² 12,9 km/h (3 Bft) 95,74 %
09.03.2026 11:52 16,0 °C 23,3 °C 17,2 °C 69 % 1021,2 hPa 0,0 l/m² 2 min 514 W/m² 9,7 km/h (2 Bft) 95,74 %
09.03.2026 11:54 16,1 °C 24,4 °C 17,2 °C 69 % 1021,1 hPa 0,0 l/m² 2 min 518 W/m² 6,4 km/h (2 Bft) 98,00 %
09.03.2026 11:56 16,2 °C 25,0 °C 17,8 °C 69 % 1021,1 hPa 0,0 l/m² 2 min 519 W/m² 6,4 km/h (2 Bft) 97,87 %
09.03.2026 11:58 16,2 °C 25,0 °C 18,3 °C 68 % 1021,1 hPa 0,0 l/m² 2 min 520 W/m² 6,4 km/h (2 Bft) 97,83 %
09.03.2026 12:00 16,3 °C 25,0 °C 18,3 °C 68 % 1021,1 hPa 0,0 l/m² 2 min 521 W/m² 6,4 km/h (2 Bft) 93,62 %
09.03.2026 12:02 16,4 °C 25,0 °C 18,3 °C 68 % 1021,0 hPa 0,0 l/m² 2 min 523 W/m² 6,4 km/h (2 Bft) 97,87 %
09.03.2026 12:04 16,5 °C 23,9 °C 17,8 °C 68 % 1021,0 hPa 0,0 l/m² 2 min 525 W/m² 6,4 km/h (2 Bft) 95,74 %
09.03.2026 12:07 16,6 °C 23,3 °C 16,1 °C 68 % 1021,0 hPa 0,0 l/m² 3 min 527 W/m² 12,9 km/h (3 Bft) 97,26 %
09.03.2026 12:08 16,6 °C 23,3 °C 16,1 °C 68 % 1021,0 hPa 0,0 l/m² 1 min 529 W/m² 3,2 km/h (1 Bft) 100,00 %
09.03.2026 12:12 16,9 °C 21,7 °C 15,6 °C 67 % 1020,9 hPa 0,0 l/m² 4 min 530 W/m² 3,2 km/h (1 Bft) 97,96 %
09.03.2026 12:14 16,9 °C 20,6 °C 15,0 °C 66 % 1020,9 hPa 0,0 l/m² 2 min 531 W/m² 9,7 km/h (2 Bft) 97,87 %
09.03.2026 12:16 17,0 °C 20,0 °C 14,4 °C 66 % 1020,9 hPa 0,0 l/m² 2 min 529 W/m² 6,4 km/h (2 Bft) 96,30 %
09.03.2026 12:18 17,1 °C 20,0 °C 14,4 °C 66 % 1020,9 hPa 0,0 l/m² 2 min 531 W/m² 12,9 km/h (3 Bft) 96,00 %
09.03.2026 12:20 17,1 °C 20,6 °C 15,0 °C 66 % 1020,8 hPa 0,0 l/m² 2 min 533 W/m² 6,4 km/h (2 Bft) 97,30 %
09.03.2026 12:22 17,2 °C 21,7 °C 15,6 °C 66 % 1020,8 hPa 0,0 l/m² 2 min 536 W/m² 3,2 km/h (1 Bft) 100,00 %
09.03.2026 12:24 17,3 °C 21,7 °C 15,6 °C 66 % 1020,8 hPa 0,0 l/m² 2 min 538 W/m² 6,4 km/h (2 Bft) 100,00 %
09.03.2026 12:26 17,4 °C 22,8 °C 16,1 °C 66 % 1020,8 hPa 0,0 l/m² 2 min 535 W/m² 3,2 km/h (1 Bft) 97,87 %
09.03.2026 12:28 17,4 °C 23,3 °C 16,1 °C 65 % 1020,8 hPa 0,0 l/m² 2 min 532 W/m² 6,4 km/h (2 Bft) 97,87 %
09.03.2026 12:30 17,4 °C 23,9 °C 16,1 °C 65 % 1020,7 hPa 0,0 l/m² 2 min 531 W/m² 9,7 km/h (2 Bft) 97,87 %
09.03.2026 12:32 17,4 °C 23,9 °C 16,1 °C 65 % 1020,7 hPa 0,0 l/m² 2 min 529 W/m² 3,2 km/h (1 Bft) 97,83 %
09.03.2026 12:34 17,4 °C 24,4 °C 16,1 °C 65 % 1020,6 hPa 0,0 l/m² 2 min 527 W/m² 12,9 km/h (3 Bft) 97,87 %
09.03.2026 12:36 17,4 °C 25,0 °C 16,1 °C 65 % 1020,5 hPa 0,0 l/m² 2 min 535 W/m² 12,9 km/h (3 Bft) 97,87 %
09.03.2026 12:38 17,4 °C 25,6 °C 16,1 °C 65 % 1020,6 hPa 0,0 l/m² 2 min 536 W/m² 6,4 km/h (2 Bft) 97,87 %
09.03.2026 12:40 17,6 °C 26,7 °C 15,6 °C 66 % 1020,6 hPa 0,0 l/m² 2 min 536 W/m² 3,2 km/h (1 Bft) 97,87 %
09.03.2026 12:42 17,7 °C 26,7 °C 15,6 °C 66 % 1020,5 hPa 0,0 l/m² 2 min 536 W/m² 12,9 km/h (3 Bft) 97,87 %
09.03.2026 12:44 17,8 °C 26,7 °C 15,0 °C 65 % 1020,5 hPa 0,0 l/m² 2 min 537 W/m² 6,4 km/h (2 Bft) 97,83 %
09.03.2026 12:46 17,9 °C 26,7 °C 15,0 °C 65 % 1020,5 hPa 0,0 l/m² 2 min 536 W/m² 6,4 km/h (2 Bft) 97,87 %
09.03.2026 12:48 17,9 °C 26,1 °C 15,0 °C 65 % 1020,5 hPa 0,0 l/m² 2 min 534 W/m² 9,7 km/h (2 Bft) 97,87 %
09.03.2026 12:50 18,1 °C 26,1 °C 14,4 °C 65 % 1020,5 hPa 0,0 l/m² 2 min 536 W/m² 9,7 km/h (2 Bft) 97,87 %
09.03.2026 12:52 18,1 °C 26,1 °C 14,4 °C 65 % 1020,5 hPa 0,0 l/m² 2 min 540 W/m² 9,7 km/h (2 Bft) 97,87 %
09.03.2026 12:54 18,2 °C 26,1 °C 14,4 °C 65 % 1020,4 hPa 0,0 l/m² 2 min 534 W/m² 9,7 km/h (2 Bft) 96,00 %
09.03.2026 12:56 18,3 °C 26,1 °C 13,9 °C 64 % 1020,4 hPa 0,0 l/m² 2 min 535 W/m² 6,4 km/h (2 Bft) 97,83 %
09.03.2026 12:58 18,3 °C 26,1 °C 14,4 °C 65 % 1020,4 hPa 0,0 l/m² 2 min 534 W/m² 9,7 km/h (2 Bft) 97,96 %
09.03.2026 13:00 18,4 °C 26,1 °C 14,4 °C 64 % 1020,4 hPa 0,0 l/m² 2 min 534 W/m² 6,4 km/h (2 Bft) 97,87 %
09.03.2026 13:02 18,5 °C 26,7 °C 13,9 °C 64 % 1020,3 hPa 0,0 l/m² 2 min 534 W/m² 6,4 km/h (2 Bft) 93,62 %
09.03.2026 13:04 18,6 °C 27,2 °C 14,4 °C 64 % 1020,3 hPa 0,0 l/m² 2 min 532 W/m² 6,4 km/h (2 Bft) 100,00 %
09.03.2026 13:06 18,7 °C 27,2 °C 14,4 °C 63 % 1020,3 hPa 0,0 l/m² 2 min 534 W/m² 0,0 km/h (0 Bft) 100,00 %
09.03.2026 13:08 18,8 °C 26,7 °C 13,9 °C 63 % 1020,3 hPa 0,0 l/m² 2 min 531 W/m² 0,0 km/h (0 Bft) 100,00 %
09.03.2026 13:10 18,9 °C 27,2 °C 13,9 °C 63 % 1020,3 hPa 0,0 l/m² 2 min 529 W/m² 6,4 km/h (2 Bft) 97,87 %
09.03.2026 13:12 19,0 °C 26,7 °C 13,9 °C 62 % 1020,3 hPa 0,0 l/m² 2 min 529 W/m² 9,7 km/h (2 Bft) 100,00 %
09.03.2026 13:14 19,1 °C 27,2 °C 13,9 °C 62 % 1020,2 hPa 0,0 l/m² 2 min 529 W/m² 9,7 km/h (2 Bft) 100,00 %
09.03.2026 13:16 19,1 °C 25,6 °C 14,4 °C 61 % 1020,2 hPa 0,0 l/m² 2 min 522 W/m² 19,3 km/h (3 Bft) 100,00 %
09.03.2026 13:18 19,0 °C 25,6 °C 13,9 °C 61 % 1020,2 hPa 0,0 l/m² 2 min 522 W/m² 6,4 km/h (2 Bft) 100,00 %
09.03.2026 13:20 19,1 °C 26,1 °C 14,4 °C 62 % 1020,1 hPa 0,0 l/m² 2 min 522 W/m² 9,7 km/h (2 Bft) 100,00 %
09.03.2026 13:22 19,1 °C 26,1 °C 13,9 °C 62 % 1020,1 hPa 0,0 l/m² 2 min 525 W/m² 6,4 km/h (2 Bft) 100,00 %
09.03.2026 13:24 19,2 °C 26,7 °C 13,9 °C 62 % 1020,1 hPa 0,0 l/m² 2 min 527 W/m² 6,4 km/h (2 Bft) 100,00 %
09.03.2026 13:26 19,3 °C 26,1 °C 13,9 °C 62 % 1020,1 hPa 0,0 l/m² 2 min 527 W/m² 6,4 km/h (2 Bft) 100,00 %
09.03.2026 13:28 19,4 °C 27,2 °C 14,4 °C 62 % 1020,0 hPa 0,0 l/m² 2 min 524 W/m² 3,2 km/h (1 Bft) 97,87 %
09.03.2026 13:30 19,6 °C 26,1 °C 14,4 °C 61 % 1020,0 hPa 0,0 l/m² 2 min 517 W/m² 9,7 km/h (2 Bft) 100,00 %
09.03.2026 13:32 19,6 °C 26,1 °C 14,4 °C 61 % 1020,0 hPa 0,0 l/m² 2 min 515 W/m² 12,9 km/h (3 Bft) 95,65 %
09.03.2026 13:34 19,6 °C 26,1 °C 14,4 °C 61 % 1020,0 hPa 0,0 l/m² 2 min 513 W/m² 12,9 km/h (3 Bft) 97,87 %
09.03.2026 13:36 19,7 °C 26,7 °C 14,4 °C 60 % 1019,9 hPa 0,0 l/m² 2 min 511 W/m² 6,4 km/h (2 Bft) 100,00 %
09.03.2026 13:38 19,8 °C 26,1 °C 14,4 °C 60 % 1019,9 hPa 0,0 l/m² 2 min 509 W/m² 12,9 km/h (3 Bft) 100,00 %
09.03.2026 13:40 19,8 °C 26,1 °C 14,4 °C 60 % 1019,9 hPa 0,0 l/m² 2 min 510 W/m² 16,1 km/h (3 Bft) 100,00 %
09.03.2026 13:42 19,8 °C 25,6 °C 14,4 °C 60 % 1019,9 hPa 0,0 l/m² 2 min 506 W/m² 9,7 km/h (2 Bft) 100,00 %
09.03.2026 13:44 19,8 °C 26,1 °C 14,4 °C 59 % 1019,9 hPa 0,0 l/m² 2 min 506 W/m² 12,9 km/h (3 Bft) 100,00 %
09.03.2026 13:46 19,9 °C 26,1 °C 14,4 °C 59 % 1019,9 hPa 0,0 l/m² 2 min 504 W/m² 16,1 km/h (3 Bft) 97,87 %
09.03.2026 13:48 19,9 °C 26,1 °C 14,4 °C 59 % 1019,8 hPa 0,0 l/m² 2 min 501 W/m² 12,9 km/h (3 Bft) 100,00 %
09.03.2026 13:50 19,8 °C 26,1 °C 14,4 °C 59 % 1019,8 hPa 0,0 l/m² 2 min 502 W/m² 6,4 km/h (2 Bft) 100,00 %
09.03.2026 13:52 19,8 °C 26,7 °C 14,4 °C 59 % 1019,8 hPa 0,0 l/m² 2 min 503 W/m² 9,7 km/h (2 Bft) 97,87 %
09.03.2026 13:54 19,9 °C 25,6 °C 14,4 °C 59 % 1019,8 hPa 0,0 l/m² 2 min 503 W/m² 3,2 km/h (1 Bft) 100,00 %
09.03.2026 13:56 19,9 °C 26,1 °C 14,4 °C 58 % 1019,7 hPa 0,0 l/m² 2 min 507 W/m² 9,7 km/h (2 Bft) 100,00 %
09.03.2026 13:58 20,1 °C 27,2 °C 14,4 °C 58 % 1019,7 hPa 0,0 l/m² 2 min 506 W/m² 19,3 km/h (3 Bft) 100,00 %
09.03.2026 14:00 20,1 °C 26,7 °C 14,4 °C 58 % 1019,7 hPa 0,0 l/m² 2 min 499 W/m² 12,9 km/h (3 Bft) 97,87 %
09.03.2026 14:02 20,1 °C 26,7 °C 14,4 °C 58 % 1019,7 hPa 0,0 l/m² 2 min 498 W/m² 6,4 km/h (2 Bft) 97,87 %
09.03.2026 14:04 20,2 °C 25,6 °C 14,4 °C 57 % 1019,7 hPa 0,0 l/m² 2 min 500 W/m² 16,1 km/h (3 Bft) 98,00 %
09.03.2026 14:06 20,2 °C 25,0 °C 14,4 °C 57 % 1019,7 hPa 0,0 l/m² 2 min 504 W/m² 12,9 km/h (3 Bft) 100,00 %
09.03.2026 14:08 20,1 °C 25,0 °C 14,4 °C 56 % 1019,6 hPa 0,0 l/m² 2 min 497 W/m² 12,9 km/h (3 Bft) 100,00 %
09.03.2026 14:10 20,1 °C 25,6 °C 13,9 °C 57 % 1019,7 hPa 0,0 l/m² 2 min 491 W/m² 9,7 km/h (2 Bft) 97,87 %
09.03.2026 14:12 20,1 °C 26,1 °C 14,4 °C 58 % 1019,6 hPa 0,0 l/m² 2 min 491 W/m² 12,9 km/h (3 Bft) 97,87 %
09.03.2026 14:14 20,1 °C 26,1 °C 14,4 °C 58 % 1019,6 hPa 0,0 l/m² 2 min 488 W/m² 6,4 km/h (2 Bft) 97,87 %
09.03.2026 14:16 20,1 °C 26,1 °C 14,4 °C 58 % 1019,6 hPa 0,0 l/m² 2 min 480 W/m² 6,4 km/h (2 Bft) 95,65 %
09.03.2026 14:18 20,2 °C 26,1 °C 14,4 °C 57 % 1019,6 hPa 0,0 l/m² 2 min 476 W/m² 12,9 km/h (3 Bft) 95,74 %
09.03.2026 14:20 20,1 °C 25,6 °C 14,4 °C 58 % 1019,6 hPa 0,0 l/m² 2 min 470 W/m² 6,4 km/h (2 Bft) 97,87 %
09.03.2026 14:22 20,2 °C 26,1 °C 14,4 °C 58 % 1019,5 hPa 0,0 l/m² 2 min 470 W/m² 12,9 km/h (3 Bft) 97,87 %
09.03.2026 14:24 20,3 °C 26,7 °C 14,4 °C 57 % 1019,5 hPa 0,0 l/m² 2 min 469 W/m² 9,7 km/h (2 Bft) 95,74 %
09.03.2026 14:26 20,4 °C 25,6 °C 14,4 °C 56 % 1019,5 hPa 0,0 l/m² 2 min 463 W/m² 12,9 km/h (3 Bft) 97,87 %
09.03.2026 14:28 20,4 °C 25,6 °C 14,4 °C 57 % 1019,5 hPa 0,0 l/m² 2 min 459 W/m² 9,7 km/h (2 Bft) 97,83 %
09.03.2026 14:30 20,4 °C 25,0 °C 14,4 °C 56 % 1019,5 hPa 0,0 l/m² 2 min 458 W/m² 12,9 km/h (3 Bft) 95,74 %
09.03.2026 14:32 20,4 °C 25,0 °C 14,4 °C 57 % 1019,4 hPa 0,0 l/m² 2 min 455 W/m² 6,4 km/h (2 Bft) 91,49 %
09.03.2026 14:34 20,4 °C 25,6 °C 14,4 °C 57 % 1019,5 hPa 0,0 l/m² 2 min 457 W/m² 9,7 km/h (2 Bft) 91,49 %
09.03.2026 14:36 20,6 °C 26,1 °C 14,4 °C 57 % 1019,5 hPa 0,0 l/m² 2 min 455 W/m² 6,4 km/h (2 Bft) 93,62 %
09.03.2026 14:38 20,6 °C 25,0 °C 14,4 °C 57 % 1019,4 hPa 0,0 l/m² 2 min 450 W/m² 9,7 km/h (2 Bft) 93,62 %
09.03.2026 14:40 20,6 °C 26,1 °C 14,4 °C 57 % 1019,4 hPa 0,0 l/m² 2 min 446 W/m² 3,2 km/h (1 Bft) 93,48 %
09.03.2026 14:42 20,7 °C 26,1 °C 14,4 °C 57 % 1019,4 hPa 0,0 l/m² 2 min 438 W/m² 6,4 km/h (2 Bft) 93,62 %
09.03.2026 14:44 20,7 °C 25,6 °C 14,4 °C 57 % 1019,4 hPa 0,0 l/m² 2 min 439 W/m² 3,2 km/h (1 Bft) 93,62 %
09.03.2026 14:46 20,8 °C 26,1 °C 14,4 °C 57 % 1019,4 hPa 0,0 l/m² 2 min 441 W/m² 3,2 km/h (1 Bft) 93,62 %
09.03.2026 14:48 20,9 °C 26,1 °C 14,4 °C 56 % 1019,4 hPa 0,0 l/m² 2 min 439 W/m² 22,5 km/h (4 Bft) 89,36 %
09.03.2026 14:50 20,9 °C 26,7 °C 15,0 °C 57 % 1019,4 hPa 0,0 l/m² 2 min 436 W/m² 16,1 km/h (3 Bft) 93,48 %
09.03.2026 14:52 21,0 °C 26,7 °C 15,0 °C 56 % 1019,4 hPa 0,0 l/m² 2 min 428 W/m² 9,7 km/h (2 Bft) 91,49 %
09.03.2026 14:54 21,1 °C 26,1 °C 15,0 °C 56 % 1019,4 hPa 0,0 l/m² 2 min 424 W/m² 6,4 km/h (2 Bft) 95,83 %
09.03.2026 14:56 21,1 °C 26,7 °C 15,0 °C 56 % 1019,4 hPa 0,0 l/m² 2 min 425 W/m² 6,4 km/h (2 Bft) 95,74 %
09.03.2026 14:58 21,1 °C 26,7 °C 15,0 °C 56 % 1019,3 hPa 0,0 l/m² 2 min 423 W/m² 12,9 km/h (3 Bft) 93,62 %
09.03.2026 15:00 21,1 °C 25,6 °C 15,0 °C 56 % 1019,3 hPa 0,0 l/m² 2 min 420 W/m² 3,2 km/h (1 Bft) 93,62 %
09.03.2026 15:02 21,2 °C 25,6 °C 14,4 °C 56 % 1019,3 hPa 0,0 l/m² 2 min 417 W/m² 3,2 km/h (1 Bft) 95,74 %
09.03.2026 15:04 21,1 °C 25,6 °C 14,4 °C 55 % 1019,3 hPa 0,0 l/m² 2 min 410 W/m² 3,2 km/h (1 Bft) 95,35 %
09.03.2026 15:06 21,1 °C 25,6 °C 14,4 °C 55 % 1019,2 hPa 0,0 l/m² 2 min 407 W/m² 3,2 km/h (1 Bft) 95,74 %
09.03.2026 15:08 21,1 °C 26,1 °C 14,4 °C 56 % 1019,3 hPa 0,0 l/m² 2 min 404 W/m² 6,4 km/h (2 Bft) 93,62 %
09.03.2026 15:10 21,2 °C 25,6 °C 15,0 °C 55 % 1019,2 hPa 0,0 l/m² 2 min 399 W/m² 12,9 km/h (3 Bft) 95,74 %
09.03.2026 15:12 21,2 °C 25,0 °C 14,4 °C 55 % 1019,2 hPa 0,0 l/m² 2 min 393 W/m² 6,4 km/h (2 Bft) 95,74 %
09.03.2026 15:14 21,2 °C 25,0 °C 14,4 °C 55 % 1019,2 hPa 0,0 l/m² 2 min 391 W/m² 6,4 km/h (2 Bft) 93,62 %
09.03.2026 15:16 21,3 °C 25,0 °C 15,0 °C 55 % 1019,2 hPa 0,0 l/m² 2 min 388 W/m² 6,4 km/h (2 Bft) 97,83 %
09.03.2026 15:18 21,3 °C 25,0 °C 15,0 °C 55 % 1019,2 hPa 0,0 l/m² 2 min 382 W/m² 6,4 km/h (2 Bft) 97,87 %
09.03.2026 15:20 21,3 °C 25,0 °C 15,0 °C 55 % 1019,2 hPa 0,0 l/m² 2 min 377 W/m² 12,9 km/h (3 Bft) 95,74 %
09.03.2026 15:22 21,3 °C 25,0 °C 15,0 °C 55 % 1019,2 hPa 0,0 l/m² 2 min 370 W/m² 6,4 km/h (2 Bft) 97,87 %
09.03.2026 15:24 21,2 °C 24,4 °C 15,0 °C 55 % 1019,2 hPa 0,0 l/m² 2 min 367 W/m² 6,4 km/h (2 Bft) 97,87 %
09.03.2026 15:26 21,1 °C 23,9 °C 14,4 °C 55 % 1019,2 hPa 0,0 l/m² 2 min 362 W/m² 16,1 km/h (3 Bft) 97,87 %
09.03.2026 15:28 21,0 °C 23,9 °C 14,4 °C 56 % 1019,3 hPa 0,0 l/m² 2 min 358 W/m² 6,4 km/h (2 Bft) 100,00 %
09.03.2026 15:30 21,0 °C 23,9 °C 14,4 °C 55 % 1019,2 hPa 0,0 l/m² 2 min 352 W/m² 6,4 km/h (2 Bft) 100,00 %
09.03.2026 15:32 21,0 °C 24,4 °C 14,4 °C 56 % 1019,2 hPa 0,0 l/m² 2 min 346 W/m² 9,7 km/h (2 Bft) 100,00 %
09.03.2026 15:34 20,9 °C 23,9 °C 14,4 °C 55 % 1019,2 hPa 0,0 l/m² 2 min 344 W/m² 6,4 km/h (2 Bft) 100,00 %
09.03.2026 15:36 20,9 °C 23,9 °C 14,4 °C 56 % 1019,2 hPa 0,0 l/m² 2 min 343 W/m² 6,4 km/h (2 Bft) 100,00 %
09.03.2026 15:38 20,9 °C 24,4 °C 14,4 °C 56 % 1019,1 hPa 0,0 l/m² 2 min 336 W/m² 9,7 km/h (2 Bft) 97,83 %
09.03.2026 15:40 20,8 °C 23,3 °C 14,4 °C 56 % 1019,2 hPa 0,0 l/m² 2 min 334 W/m² 9,7 km/h (2 Bft) 100,00 %
09.03.2026 15:42 20,8 °C 23,3 °C 14,4 °C 56 % 1019,1 hPa 0,0 l/m² 2 min 330 W/m² 6,4 km/h (2 Bft) 100,00 %
09.03.2026 15:44 20,7 °C 23,3 °C 13,9 °C 56 % 1019,1 hPa 0,0 l/m² 2 min 327 W/m² 3,2 km/h (1 Bft) 100,00 %
09.03.2026 15:46 20,8 °C 23,9 °C 14,4 °C 57 % 1019,1 hPa 0,0 l/m² 2 min 320 W/m² 9,7 km/h (2 Bft) 100,00 %
09.03.2026 15:48 20,7 °C 23,9 °C 14,4 °C 56 % 1019,1 hPa 0,0 l/m² 2 min 310 W/m² 9,7 km/h (2 Bft) 100,00 %
09.03.2026 15:50 20,7 °C 23,9 °C 14,4 °C 57 % 1019,1 hPa 0,0 l/m² 2 min 308 W/m² 6,4 km/h (2 Bft) 100,00 %
09.03.2026 15:52 20,7 °C 23,3 °C 14,4 °C 56 % 1019,0 hPa 0,0 l/m² 2 min 302 W/m² 6,4 km/h (2 Bft) 100,00 %
09.03.2026 15:54 20,7 °C 23,9 °C 14,4 °C 56 % 1019,1 hPa 0,0 l/m² 2 min 296 W/m² 9,7 km/h (2 Bft) 100,00 %
09.03.2026 15:56 20,6 °C 23,9 °C 14,4 °C 56 % 1019,0 hPa 0,0 l/m² 2 min 288 W/m² 6,4 km/h (2 Bft) 100,00 %
09.03.2026 15:58 20,7 °C 23,3 °C 13,9 °C 56 % 1019,0 hPa 0,0 l/m² 2 min 280 W/m² 12,9 km/h (3 Bft) 100,00 %
09.03.2026 16:00 20,7 °C 22,8 °C 13,9 °C 56 % 1019,0 hPa 0,0 l/m² 2 min 273 W/m² 6,4 km/h (2 Bft) 100,00 %
09.03.2026 16:02 20,7 °C 22,8 °C 13,9 °C 56 % 1019,0 hPa 0,0 l/m² 2 min 268 W/m² 6,4 km/h (2 Bft) 100,00 %
09.03.2026 16:04 20,7 °C 22,8 °C 13,9 °C 56 % 1019,0 hPa 0,0 l/m² 2 min 265 W/m² 6,4 km/h (2 Bft) 100,00 %
09.03.2026 16:06 20,7 °C 23,3 °C 13,9 °C 56 % 1019,0 hPa 0,0 l/m² 2 min 262 W/m² 6,4 km/h (2 Bft) 100,00 %
09.03.2026 16:08 20,7 °C 22,8 °C 13,9 °C 56 % 1019,0 hPa 0,0 l/m² 2 min 257 W/m² 6,4 km/h (2 Bft) 100,00 %
09.03.2026 16:10 20,6 °C 22,8 °C 13,9 °C 56 % 1018,9 hPa 0,0 l/m² 2 min 251 W/m² 3,2 km/h (1 Bft) 97,87 %
09.03.2026 16:12 20,6 °C 22,2 °C 13,9 °C 56 % 1018,9 hPa 0,0 l/m² 2 min 246 W/m² 3,2 km/h (1 Bft) 100,00 %
09.03.2026 16:14 20,4 °C 22,2 °C 13,3 °C 57 % 1018,9 hPa 0,0 l/m² 2 min 243 W/m² 3,2 km/h (1 Bft) 100,00 %
09.03.2026 16:16 20,4 °C 22,2 °C 13,3 °C 57 % 1018,9 hPa 0,0 l/m² 2 min 238 W/m² 3,2 km/h (1 Bft) 97,87 %
09.03.2026 16:18 20,3 °C 22,2 °C 13,3 °C 56 % 1018,9 hPa 0,0 l/m² 2 min 231 W/m² 9,7 km/h (2 Bft) 100,00 %
09.03.2026 16:20 20,2 °C 21,7 °C 13,3 °C 57 % 1018,9 hPa 0,0 l/m² 2 min 225 W/m² 3,2 km/h (1 Bft) 100,00 %
09.03.2026 16:22 20,2 °C 21,1 °C 13,3 °C 57 % 1018,9 hPa 0,0 l/m² 2 min 218 W/m² 3,2 km/h (1 Bft) 100,00 %
09.03.2026 16:24 20,1 °C 20,6 °C 13,3 °C 57 % 1018,8 hPa 0,0 l/m² 2 min 213 W/m² 3,2 km/h (1 Bft) 100,00 %
09.03.2026 16:26 20,1 °C 20,0 °C 13,3 °C 58 % 1018,8 hPa 0,0 l/m² 2 min 210 W/m² 6,4 km/h (2 Bft) 100,00 %
09.03.2026 16:28 20,0 °C 20,0 °C 13,3 °C 57 % 1018,8 hPa 0,0 l/m² 2 min 203 W/m² 6,4 km/h (2 Bft) 100,00 %
09.03.2026 16:30 19,9 °C 19,4 °C 13,3 °C 57 % 1018,8 hPa 0,0 l/m² 2 min 199 W/m² 3,2 km/h (1 Bft) 100,00 %
09.03.2026 16:32 19,9 °C 19,4 °C 13,3 °C 57 % 1018,8 hPa 0,0 l/m² 2 min 197 W/m² 6,4 km/h (2 Bft) 100,00 %
09.03.2026 16:34 19,8 °C 18,9 °C 13,3 °C 57 % 1018,7 hPa 0,0 l/m² 2 min 192 W/m² 6,4 km/h (2 Bft) 100,00 %
09.03.2026 16:36 19,8 °C 18,9 °C 12,8 °C 57 % 1018,8 hPa 0,0 l/m² 2 min 185 W/m² 3,2 km/h (1 Bft) 100,00 %
09.03.2026 16:38 19,7 °C 18,9 °C 12,8 °C 57 % 1018,8 hPa 0,0 l/m² 2 min 178 W/m² 3,2 km/h (1 Bft) 100,00 %
09.03.2026 16:40 19,7 °C 18,9 °C 12,8 °C 57 % 1018,7 hPa 0,0 l/m² 2 min 173 W/m² 3,2 km/h (1 Bft) 100,00 %
09.03.2026 16:42 19,7 °C 18,9 °C 12,8 °C 58 % 1018,7 hPa 0,0 l/m² 2 min 169 W/m² 6,4 km/h (2 Bft) 95,65 %
09.03.2026 16:44 19,6 °C 18,9 °C 12,8 °C 58 % 1018,7 hPa 0,0 l/m² 2 min 164 W/m² 6,4 km/h (2 Bft) 95,74 %
09.03.2026 16:46 19,6 °C 18,9 °C 12,8 °C 58 % 1018,7 hPa 0,0 l/m² 2 min 158 W/m² 6,4 km/h (2 Bft) 97,87 %
09.03.2026 16:48 19,6 °C 18,9 °C 12,8 °C 58 % 1018,7 hPa 0,0 l/m² 2 min 155 W/m² 3,2 km/h (1 Bft) 97,87 %
09.03.2026 16:50 19,5 °C 18,9 °C 12,8 °C 58 % 1018,7 hPa 0,0 l/m² 2 min 149 W/m² 9,7 km/h (2 Bft) 97,87 %
09.03.2026 16:52 19,4 °C 18,9 °C 12,8 °C 58 % 1018,7 hPa 0,0 l/m² 2 min 145 W/m² 6,4 km/h (2 Bft) 93,62 %
09.03.2026 16:54 19,4 °C 18,3 °C 12,8 °C 58 % 1018,7 hPa 0,0 l/m² 2 min 139 W/m² 6,4 km/h (2 Bft) 97,56 %
09.03.2026 16:56 19,4 °C 18,3 °C 12,8 °C 58 % 1018,7 hPa 0,0 l/m² 2 min 134 W/m² 6,4 km/h (2 Bft) 95,74 %
09.03.2026 16:58 19,3 °C 18,3 °C 12,8 °C 59 % 1018,7 hPa 0,0 l/m² 2 min 131 W/m² 0,0 km/h (0 Bft) 94,00 %
09.03.2026 17:00 19,3 °C 18,3 °C 12,8 °C 59 % 1018,7 hPa 0,0 l/m² 2 min 126 W/m² 3,2 km/h (1 Bft) 95,74 %
09.03.2026 17:02 19,2 °C 18,3 °C 12,2 °C 59 % 1018,7 hPa 0,0 l/m² 2 min 121 W/m² 0,0 km/h (0 Bft) 95,74 %
09.03.2026 17:04 19,2 °C 18,3 °C 12,2 °C 60 % 1018,7 hPa 0,0 l/m² 2 min 118 W/m² 0,0 km/h (0 Bft) 95,74 %
09.03.2026 17:06 19,1 °C 17,8 °C 12,2 °C 60 % 1018,6 hPa 0,0 l/m² 2 min 113 W/m² 3,2 km/h (1 Bft) 96,61 %
09.03.2026 17:08 19,1 °C 17,8 °C 12,2 °C 60 % 1018,6 hPa 0,0 l/m² 2 min 108 W/m² 6,4 km/h (2 Bft) 94,29 %
09.03.2026 17:10 19,0 °C 17,8 °C 12,2 °C 60 % 1018,6 hPa 0,0 l/m² 2 min 100 W/m² 6,4 km/h (2 Bft) 95,74 %
09.03.2026 17:12 18,9 °C 17,8 °C 12,2 °C 60 % 1018,6 hPa 0,0 l/m² 0 min 81 W/m² 3,2 km/h (1 Bft) 95,74 %
09.03.2026 17:14 18,9 °C 17,8 °C 12,2 °C 61 % 1018,6 hPa 0,0 l/m² 0 min 76 W/m² 0,0 km/h (0 Bft) 93,62 %
09.03.2026 17:16 18,8 °C 17,8 °C 11,7 °C 61 % 1018,5 hPa 0,0 l/m² 0 min 74 W/m² 3,2 km/h (1 Bft) 95,65 %
09.03.2026 17:18 18,8 °C 17,8 °C 11,7 °C 61 % 1018,6 hPa 0,0 l/m² 0 min 71 W/m² 3,2 km/h (1 Bft) 95,74 %
09.03.2026 17:20 18,8 °C 17,8 °C 11,7 °C 61 % 1018,5 hPa 0,0 l/m² 0 min 69 W/m² 0,0 km/h (0 Bft) 95,74 %
09.03.2026 17:22 18,7 °C 17,8 °C 11,7 °C 62 % 1018,5 hPa 0,0 l/m² 0 min 67 W/m² 0,0 km/h (0 Bft) 91,49 %
09.03.2026 17:24 18,7 °C 17,2 °C 11,7 °C 62 % 1018,5 hPa 0,0 l/m² 0 min 64 W/m² 3,2 km/h (1 Bft) 95,74 %
09.03.2026 17:26 18,7 °C 17,2 °C 11,7 °C 62 % 1018,6 hPa 0,0 l/m² 0 min 62 W/m² 3,2 km/h (1 Bft) 97,83 %
09.03.2026 17:28 18,6 °C 17,2 °C 11,1 °C 62 % 1018,5 hPa 0,0 l/m² 0 min 60 W/m² 0,0 km/h (0 Bft) 95,74 %
09.03.2026 17:30 18,6 °C 17,2 °C 11,1 °C 62 % 1018,6 hPa 0,0 l/m² 0 min 57 W/m² 0,0 km/h (0 Bft) 93,62 %
09.03.2026 17:32 18,6 °C 17,2 °C 11,1 °C 62 % 1018,6 hPa 0,0 l/m² 0 min 55 W/m² 3,2 km/h (1 Bft) 95,74 %
09.03.2026 17:34 18,5 °C 17,2 °C 11,1 °C 62 % 1018,6 hPa 0,0 l/m² 0 min 53 W/m² 0,0 km/h (0 Bft) 100,00 %
09.03.2026 17:36 18,5 °C 17,2 °C 11,1 °C 62 % 1018,6 hPa 0,0 l/m² 0 min 51 W/m² 0,0 km/h (0 Bft) 97,87 %
09.03.2026 17:38 18,4 °C 16,7 °C 11,1 °C 62 % 1018,6 hPa 0,0 l/m² 0 min 48 W/m² 0,0 km/h (0 Bft) 97,87 %
09.03.2026 17:40 18,4 °C 16,7 °C 10,6 °C 62 % 1018,6 hPa 0,0 l/m² 0 min 46 W/m² 0,0 km/h (0 Bft) 97,83 %
09.03.2026 17:42 18,4 °C 16,7 °C 10,6 °C 62 % 1018,6 hPa 0,0 l/m² 0 min 45 W/m² 3,2 km/h (1 Bft) 97,87 %
09.03.2026 17:44 18,4 °C 16,1 °C 10,6 °C 62 % 1018,6 hPa 0,0 l/m² 0 min 42 W/m² 0,0 km/h (0 Bft) 93,62 %
09.03.2026 17:46 18,3 °C 16,1 °C 10,6 °C 62 % 1018,6 hPa 0,0 l/m² 0 min 40 W/m² 0,0 km/h (0 Bft) 97,87 %
09.03.2026 17:48 18,3 °C 16,1 °C 10,6 °C 62 % 1018,5 hPa 0,0 l/m² 0 min 38 W/m² 0,0 km/h (0 Bft) 95,74 %
09.03.2026 17:50 18,2 °C 16,1 °C 10,6 °C 62 % 1018,6 hPa 0,0 l/m² 0 min 35 W/m² 0,0 km/h (0 Bft) 93,48 %
09.03.2026 17:52 18,2 °C 16,1 °C 10,0 °C 63 % 1018,5 hPa 0,0 l/m² 0 min 33 W/m² 0,0 km/h (0 Bft) 97,87 %
09.03.2026 17:54 18,2 °C 15,6 °C 10,0 °C 63 % 1018,6 hPa 0,0 l/m² 0 min 31 W/m² 0,0 km/h (0 Bft) 95,74 %
09.03.2026 17:56 18,1 °C 15,6 °C 10,0 °C 63 % 1018,5 hPa 0,0 l/m² 0 min 29 W/m² 0,0 km/h (0 Bft) 97,87 %
09.03.2026 17:58 18,1 °C 15,6 °C 10,0 °C 64 % 1018,6 hPa 0,0 l/m² 0 min 27 W/m² 0,0 km/h (0 Bft) 97,87 %
09.03.2026 18:00 18,0 °C 15,6 °C 10,0 °C 64 % 1018,5 hPa 0,0 l/m² 0 min 25 W/m² 0,0 km/h (0 Bft) 97,87 %
09.03.2026 18:02 17,9 °C 15,0 °C 10,0 °C 64 % 1018,6 hPa 0,0 l/m² 0 min 23 W/m² 0,0 km/h (0 Bft) 97,83 %
09.03.2026 18:04 17,8 °C 15,0 °C 9,4 °C 64 % 1018,6 hPa 0,0 l/m² 0 min 21 W/m² 0,0 km/h (0 Bft) 97,92 %
09.03.2026 18:07 17,7 °C 15,0 °C 9,4 °C 65 % 1018,7 hPa 0,0 l/m² 0 min 19 W/m² 0,0 km/h (0 Bft) 95,71 %
09.03.2026 18:10 17,6 °C 14,4 °C 9,4 °C 65 % 1018,6 hPa 0,0 l/m² 0 min 16 W/m² 0,0 km/h (0 Bft) 97,76 %
09.03.2026 18:12 17,6 °C 14,4 °C 9,4 °C 65 % 1018,7 hPa 0,0 l/m² 0 min 14 W/m² 0,0 km/h (0 Bft) 96,83 %
09.03.2026 18:14 17,4 °C 14,4 °C 8,9 °C 65 % 1018,7 hPa 0,0 l/m² 0 min 12 W/m² 0,0 km/h (0 Bft) 97,83 %
09.03.2026 18:16 17,4 °C 14,4 °C 8,9 °C 66 % 1018,7 hPa 0,0 l/m² 0 min 11 W/m² 0,0 km/h (0 Bft) 97,87 %
09.03.2026 18:18 17,3 °C 13,9 °C 8,9 °C 66 % 1018,7 hPa 0,0 l/m² 0 min 11 W/m² 0,0 km/h (0 Bft) 95,74 %
09.03.2026 18:20 17,2 °C 13,9 °C 8,9 °C 66 % 1018,7 hPa 0,0 l/m² 0 min 9 W/m² 0,0 km/h (0 Bft) 97,87 %
09.03.2026 18:22 17,1 °C 13,9 °C 8,9 °C 66 % 1018,7 hPa 0,0 l/m² 0 min 7 W/m² 0,0 km/h (0 Bft) 97,87 %
09.03.2026 18:24 17,0 °C 13,9 °C 8,3 °C 66 % 1018,7 hPa 0,0 l/m² 0 min 5 W/m² 0,0 km/h (0 Bft) 100,00 %
09.03.2026 18:26 16,9 °C 13,9 °C 8,3 °C 67 % 1018,7 hPa 0,0 l/m² 0 min 5 W/m² 0,0 km/h (0 Bft) 100,00 %
09.03.2026 18:28 16,8 °C 13,3 °C 8,3 °C 67 % 1018,7 hPa 0,0 l/m² 0 min 2 W/m² 0,0 km/h (0 Bft) 100,00 %
09.03.2026 18:30 16,7 °C 13,3 °C 8,3 °C 67 % 1018,7 hPa 0,0 l/m² 0 min 0 W/m² 0,0 km/h (0 Bft) 97,87 %
09.03.2026 18:32 16,6 °C 13,3 °C 8,3 °C 68 % 1018,7 hPa 0,0 l/m² 0 min 0 W/m² 0,0 km/h (0 Bft) 97,87 %
09.03.2026 18:34 16,5 °C 13,3 °C 8,3 °C 68 % 1018,7 hPa 0,0 l/m² 0 min 0 W/m² 0,0 km/h (0 Bft) 97,87 %
09.03.2026 18:36 16,4 °C 12,8 °C 8,3 °C 68 % 1018,8 hPa 0,0 l/m² 0 min 0 W/m² 0,0 km/h (0 Bft) 100,00 %
09.03.2026 18:38 16,3 °C 12,8 °C 7,8 °C 69 % 1018,7 hPa 0,0 l/m² 0 min 0 W/m² 0,0 km/h (0 Bft) 100,00 %
09.03.2026 18:40 16,2 °C 12,8 °C 7,8 °C 69 % 1018,8 hPa 0,0 l/m² 0 min 0 W/m² 0,0 km/h (0 Bft) 97,87 %
09.03.2026 18:42 16,1 °C 12,8 °C 7,8 °C 69 % 1018,8 hPa 0,0 l/m² 0 min 0 W/m² 0,0 km/h (0 Bft) 100,00 %
09.03.2026 18:44 15,9 °C 12,8 °C 7,8 °C 70 % 1018,8 hPa 0,0 l/m² 0 min 0 W/m² 0,0 km/h (0 Bft) 97,87 %
09.03.2026 18:46 15,8 °C 12,2 °C 7,8 °C 70 % 1018,8 hPa 0,0 l/m² 0 min 0 W/m² 0,0 km/h (0 Bft) 100,00 %
09.03.2026 18:48 15,8 °C 12,2 °C 7,8 °C 70 % 1018,8 hPa 0,0 l/m² 0 min 0 W/m² 0,0 km/h (0 Bft) 97,83 %
09.03.2026 18:50 15,7 °C 12,2 °C 7,8 °C 71 % 1018,8 hPa 0,0 l/m² 0 min 0 W/m² 0,0 km/h (0 Bft) 95,74 %
09.03.2026 18:52 15,6 °C 12,2 °C 7,2 °C 71 % 1018,8 hPa 0,0 l/m² 0 min 0 W/m² 0,0 km/h (0 Bft) 97,87 %
09.03.2026 18:54 15,4 °C 12,2 °C 7,2 °C 71 % 1018,8 hPa 0,0 l/m² 0 min 0 W/m² 0,0 km/h (0 Bft) 100,00 %
09.03.2026 18:56 15,3 °C 12,2 °C 7,2 °C 71 % 1018,8 hPa 0,0 l/m² 0 min 0 W/m² 0,0 km/h (0 Bft) 100,00 %
09.03.2026 18:58 15,2 °C 11,7 °C 7,2 °C 72 % 1018,8 hPa 0,0 l/m² 0 min 0 W/m² 0,0 km/h (0 Bft) 100,00 %
09.03.2026 19:00 15,2 °C 11,7 °C 7,2 °C 72 % 1018,8 hPa 0,0 l/m² 0 min 0 W/m² 0,0 km/h (0 Bft) 97,83 %
09.03.2026 19:02 15,1 °C 11,7 °C 7,2 °C 72 % 1018,8 hPa 0,0 l/m² 0 min 0 W/m² 0,0 km/h (0 Bft) 97,87 %
09.03.2026 19:04 14,9 °C 11,7 °C 7,2 °C 72 % 1018,8 hPa 0,0 l/m² 0 min 0 W/m² 0,0 km/h (0 Bft) 97,92 %
09.03.2026 19:06 14,9 °C 11,7 °C 7,2 °C 72 % 1018,8 hPa 0,0 l/m² 0 min 0 W/m² 0,0 km/h (0 Bft) 96,61 %
09.03.2026 19:08 14,8 °C 11,7 °C 7,2 °C 73 % 1018,8 hPa 0,0 l/m² 0 min 0 W/m² 0,0 km/h (0 Bft) 97,14 %
09.03.2026 19:10 14,7 °C 11,7 °C 7,2 °C 73 % 1018,8 hPa 0,0 l/m² 0 min 0 W/m² 0,0 km/h (0 Bft) 95,74 %
09.03.2026 19:12 14,6 °C 11,7 °C 7,2 °C 73 % 1018,8 hPa 0,0 l/m² 0 min 0 W/m² 0,0 km/h (0 Bft) 97,83 %
09.03.2026 19:14 14,5 °C 11,7 °C 6,7 °C 73 % 1018,8 hPa 0,0 l/m² 0 min 0 W/m² 0,0 km/h (0 Bft) 97,87 %
09.03.2026 19:16 14,4 °C 11,7 °C 6,7 °C 73 % 1018,9 hPa 0,0 l/m² 0 min 0 W/m² 0,0 km/h (0 Bft) 97,87 %
09.03.2026 19:18 14,3 °C 11,7 °C 6,7 °C 73 % 1018,8 hPa 0,0 l/m² 0 min 0 W/m² 0,0 km/h (0 Bft) 95,74 %
09.03.2026 19:20 14,3 °C 11,1 °C 6,7 °C 74 % 1018,8 hPa 0,0 l/m² 0 min 0 W/m² 0,0 km/h (0 Bft) 97,87 %
09.03.2026 19:22 14,3 °C 11,1 °C 6,7 °C 74 % 1018,9 hPa 0,0 l/m² 0 min 0 W/m² 0,0 km/h (0 Bft) 97,87 %
09.03.2026 19:24 14,2 °C 11,1 °C 6,7 °C 74 % 1018,8 hPa 0,0 l/m² 0 min 0 W/m² 0,0 km/h (0 Bft) 95,65 %
09.03.2026 19:26 14,1 °C 11,1 °C 6,7 °C 74 % 1018,8 hPa 0,0 l/m² 0 min 0 W/m² 0,0 km/h (0 Bft) 95,74 %
09.03.2026 19:28 14,0 °C 11,1 °C 6,7 °C 74 % 1018,8 hPa 0,0 l/m² 0 min 0 W/m² 0,0 km/h (0 Bft) 97,87 %
09.03.2026 19:30 13,9 °C 11,1 °C 6,7 °C 75 % 1018,8 hPa 0,0 l/m² 0 min 0 W/m² 0,0 km/h (0 Bft) 97,87 %
09.03.2026 19:32 13,9 °C 11,1 °C 6,7 °C 75 % 1018,8 hPa 0,0 l/m² 0 min 0 W/m² 0,0 km/h (0 Bft) 95,74 %
09.03.2026 19:34 13,8 °C 11,1 °C 6,7 °C 75 % 1018,8 hPa 0,0 l/m² 0 min 0 W/m² 0,0 km/h (0 Bft) 97,87 %
09.03.2026 19:36 13,7 °C 11,1 °C 6,7 °C 75 % 1018,8 hPa 0,0 l/m² 0 min 0 W/m² 0,0 km/h (0 Bft) 97,83 %
09.03.2026 19:38 13,6 °C 11,7 °C 7,2 °C 76 % 1018,8 hPa 0,0 l/m² 0 min 0 W/m² 3,2 km/h (1 Bft) 95,74 %
09.03.2026 19:40 13,6 °C 11,7 °C 7,2 °C 76 % 1018,7 hPa 0,0 l/m² 0 min 0 W/m² 0,0 km/h (0 Bft) 95,74 %
09.03.2026 19:42 13,5 °C 11,7 °C 7,2 °C 76 % 1018,7 hPa 0,0 l/m² 0 min 0 W/m² 0,0 km/h (0 Bft) 97,87 %
09.03.2026 19:44 13,4 °C 11,1 °C 7,2 °C 76 % 1018,8 hPa 0,0 l/m² 0 min 0 W/m² 0,0 km/h (0 Bft) 97,87 %
09.03.2026 19:46 13,4 °C 11,1 °C 7,2 °C 77 % 1018,8 hPa 0,0 l/m² 0 min 0 W/m² 0,0 km/h (0 Bft) 95,74 %
09.03.2026 19:48 13,3 °C 11,1 °C 6,7 °C 77 % 1018,7 hPa 0,0 l/m² 0 min 0 W/m² 0,0 km/h (0 Bft) 95,65 %
09.03.2026 19:50 13,3 °C 11,1 °C 6,7 °C 77 % 1018,7 hPa 0,0 l/m² 0 min 0 W/m² 0,0 km/h (0 Bft) 95,74 %
09.03.2026 19:52 13,2 °C 10,6 °C 6,7 °C 77 % 1018,7 hPa 0,0 l/m² 0 min 0 W/m² 0,0 km/h (0 Bft) 95,74 %
09.03.2026 19:54 13,2 °C 10,6 °C 6,7 °C 77 % 1018,7 hPa 0,0 l/m² 0 min 0 W/m² 0,0 km/h (0 Bft) 93,62 %
09.03.2026 19:56 13,1 °C 10,6 °C 6,7 °C 77 % 1018,7 hPa 0,0 l/m² 0 min 0 W/m² 0,0 km/h (0 Bft) 95,74 %
09.03.2026 19:58 13,1 °C 10,6 °C 6,1 °C 77 % 1018,7 hPa 0,0 l/m² 0 min 0 W/m² 0,0 km/h (0 Bft) 95,74 %
09.03.2026 20:00 13,1 °C 10,6 °C 6,1 °C 77 % 1018,7 hPa 0,0 l/m² 0 min 0 W/m² 0,0 km/h (0 Bft) 95,65 %
09.03.2026 20:02 12,9 °C 10,6 °C 6,1 °C 78 % 1018,7 hPa 0,0 l/m² 0 min 0 W/m² 0,0 km/h (0 Bft) 95,74 %
09.03.2026 20:04 12,9 °C 10,6 °C 6,1 °C 78 % 1018,7 hPa 0,0 l/m² 0 min 0 W/m² 0,0 km/h (0 Bft) 93,75 %
09.03.2026 20:06 12,8 °C 10,6 °C 6,1 °C 78 % 1018,7 hPa 0,0 l/m² 0 min 0 W/m² 0,0 km/h (0 Bft) 93,62 %
09.03.2026 20:08 12,8 °C 10,0 °C 6,1 °C 78 % 1018,7 hPa 0,0 l/m² 0 min 0 W/m² 0,0 km/h (0 Bft) 95,74 %
09.03.2026 20:10 12,7 °C 10,0 °C 6,1 °C 78 % 1018,7 hPa 0,0 l/m² 0 min 0 W/m² 0,0 km/h (0 Bft) 95,65 %
09.03.2026 20:12 12,7 °C 10,0 °C 5,6 °C 78 % 1018,7 hPa 0,0 l/m² 0 min 0 W/m² 0,0 km/h (0 Bft) 95,74 %
09.03.2026 20:14 12,6 °C 10,0 °C 5,6 °C 78 % 1018,7 hPa 0,0 l/m² 0 min 0 W/m² 0,0 km/h (0 Bft) 95,74 %
09.03.2026 20:16 12,6 °C 10,0 °C 5,6 °C 79 % 1018,7 hPa 0,0 l/m² 0 min 0 W/m² 0,0 km/h (0 Bft) 95,74 %
09.03.2026 20:18 12,5 °C 10,0 °C 5,6 °C 79 % 1018,7 hPa 0,0 l/m² 0 min 0 W/m² 0,0 km/h (0 Bft) 95,74 %
09.03.2026 20:20 12,4 °C 10,0 °C 5,6 °C 79 % 1018,7 hPa 0,0 l/m² 0 min 0 W/m² 0,0 km/h (0 Bft) 91,49 %
09.03.2026 20:22 12,4 °C 10,0 °C 5,6 °C 79 % 1018,7 hPa 0,0 l/m² 0 min 0 W/m² 0,0 km/h (0 Bft) 97,83 %
09.03.2026 20:24 12,3 °C 10,0 °C 5,6 °C 79 % 1018,7 hPa 0,0 l/m² 0 min 0 W/m² 0,0 km/h (0 Bft) 93,62 %
09.03.2026 20:26 12,3 °C 10,0 °C 5,6 °C 79 % 1018,7 hPa 0,0 l/m² 0 min 0 W/m² 0,0 km/h (0 Bft) 100,00 %
09.03.2026 20:28 12,3 °C 10,0 °C 5,6 °C 79 % 1018,7 hPa 0,0 l/m² 0 min 0 W/m² 0,0 km/h (0 Bft) 100,00 %
09.03.2026 20:30 12,2 °C 10,0 °C 5,6 °C 79 % 1018,8 hPa 0,0 l/m² 0 min 0 W/m² 0,0 km/h (0 Bft) 97,87 %
09.03.2026 20:32 12,2 °C 10,0 °C 5,6 °C 80 % 1018,7 hPa 0,0 l/m² 0 min 0 W/m² 0,0 km/h (0 Bft) 100,00 %
09.03.2026 20:34 12,1 °C 9,4 °C 5,6 °C 80 % 1018,7 hPa 0,0 l/m² 0 min 0 W/m² 0,0 km/h (0 Bft) 100,00 %
09.03.2026 20:36 12,1 °C 9,4 °C 5,6 °C 80 % 1018,6 hPa 0,0 l/m² 0 min 0 W/m² 0,0 km/h (0 Bft) 72,34 %
09.03.2026 20:38 12,0 °C 9,4 °C 5,6 °C 80 % 1018,6 hPa 0,0 l/m² 0 min 0 W/m² 0,0 km/h (0 Bft) 82,93 %
09.03.2026 20:40 11,9 °C 9,4 °C 5,6 °C 80 % 1018,6 hPa 0,0 l/m² 0 min 0 W/m² 0,0 km/h (0 Bft) 95,74 %
09.03.2026 20:42 11,9 °C 9,4 °C 5,0 °C 80 % 1018,6 hPa 0,0 l/m² 0 min 0 W/m² 0,0 km/h (0 Bft) 97,87 %
09.03.2026 20:44 11,8 °C 9,4 °C 5,0 °C 81 % 1018,6 hPa 0,0 l/m² 0 min 0 W/m² 0,0 km/h (0 Bft) 97,87 %
09.03.2026 20:46 11,8 °C 9,4 °C 5,0 °C 81 % 1018,6 hPa 0,0 l/m² 0 min 0 W/m² 0,0 km/h (0 Bft) 97,83 %
09.03.2026 20:48 11,7 °C 9,4 °C 5,0 °C 81 % 1018,6 hPa 0,0 l/m² 0 min 0 W/m² 0,0 km/h (0 Bft) 91,49 %
09.03.2026 20:50 11,7 °C 9,4 °C 5,0 °C 81 % 1018,6 hPa 0,0 l/m² 0 min 0 W/m² 0,0 km/h (0 Bft) 97,87 %
09.03.2026 20:52 11,6 °C 9,4 °C 5,0 °C 81 % 1018,6 hPa 0,0 l/m² 0 min 0 W/m² 0,0 km/h (0 Bft) 97,87 %
09.03.2026 20:54 11,6 °C 9,4 °C 5,0 °C 81 % 1018,6 hPa 0,0 l/m² 0 min 0 W/m² 0,0 km/h (0 Bft) 97,87 %
09.03.2026 20:56 11,6 °C 9,4 °C 5,0 °C 81 % 1018,6 hPa 0,0 l/m² 0 min 0 W/m² 0,0 km/h (0 Bft) 95,74 %
09.03.2026 20:58 11,5 °C 9,4 °C 5,0 °C 82 % 1018,6 hPa 0,0 l/m² 0 min 0 W/m² 0,0 km/h (0 Bft) 97,83 %
09.03.2026 21:00 11,4 °C 9,4 °C 5,0 °C 82 % 1018,7 hPa 0,0 l/m² 0 min 0 W/m² 0,0 km/h (0 Bft) 95,74 %
09.03.2026 21:02 11,4 °C 9,4 °C 5,0 °C 82 % 1018,7 hPa 0,0 l/m² 0 min 0 W/m² 0,0 km/h (0 Bft) 95,74 %
09.03.2026 21:04 11,3 °C 9,4 °C 5,0 °C 82 % 1018,7 hPa 0,0 l/m² 0 min 0 W/m² 0,0 km/h (0 Bft) 97,92 %
09.03.2026 21:06 11,3 °C 8,9 °C 5,0 °C 82 % 1018,7 hPa 0,0 l/m² 0 min 0 W/m² 0,0 km/h (0 Bft) 100,00 %
09.03.2026 21:08 11,2 °C 8,9 °C 5,0 °C 82 % 1018,7 hPa 0,0 l/m² 0 min 0 W/m² 0,0 km/h (0 Bft) 100,00 %
09.03.2026 21:10 11,2 °C 8,9 °C 5,0 °C 82 % 1018,7 hPa 0,0 l/m² 0 min 0 W/m² 0,0 km/h (0 Bft) 100,00 %
09.03.2026 21:12 11,2 °C 8,9 °C 5,0 °C 82 % 1018,7 hPa 0,0 l/m² 0 min 0 W/m² 0,0 km/h (0 Bft) 97,87 %
09.03.2026 21:14 11,1 °C 8,9 °C 5,0 °C 83 % 1018,7 hPa 0,0 l/m² 0 min 0 W/m² 0,0 km/h (0 Bft) 100,00 %
09.03.2026 21:16 11,1 °C 8,9 °C 5,0 °C 83 % 1018,7 hPa 0,0 l/m² 0 min 0 W/m² 0,0 km/h (0 Bft) 100,00 %
09.03.2026 21:18 11,1 °C 8,9 °C 5,0 °C 83 % 1018,7 hPa 0,0 l/m² 0 min 0 W/m² 0,0 km/h (0 Bft) 100,00 %
09.03.2026 21:20 11,0 °C 8,9 °C 5,0 °C 83 % 1018,7 hPa 0,0 l/m² 0 min 0 W/m² 0,0 km/h (0 Bft) 100,00 %
09.03.2026 21:22 10,9 °C 8,9 °C 5,0 °C 83 % 1018,7 hPa 0,0 l/m² 0 min 0 W/m² 0,0 km/h (0 Bft) 100,00 %
09.03.2026 21:24 10,9 °C 8,9 °C 5,0 °C 83 % 1018,7 hPa 0,0 l/m² 0 min 0 W/m² 0,0 km/h (0 Bft) 100,00 %
09.03.2026 21:26 10,9 °C 8,9 °C 5,0 °C 83 % 1018,7 hPa 0,0 l/m² 0 min 0 W/m² 0,0 km/h (0 Bft) 100,00 %
09.03.2026 21:28 10,8 °C 8,9 °C 4,4 °C 83 % 1018,7 hPa 0,0 l/m² 0 min 0 W/m² 0,0 km/h (0 Bft) 95,74 %
09.03.2026 21:30 10,8 °C 8,9 °C 4,4 °C 83 % 1018,7 hPa 0,0 l/m² 0 min 0 W/m² 0,0 km/h (0 Bft) 100,00 %
09.03.2026 21:32 10,8 °C 8,3 °C 4,4 °C 83 % 1018,7 hPa 0,0 l/m² 0 min 0 W/m² 0,0 km/h (0 Bft) 100,00 %
09.03.2026 21:34 10,7 °C 8,3 °C 4,4 °C 83 % 1018,7 hPa 0,0 l/m² 0 min 0 W/m² 0,0 km/h (0 Bft) 95,74 %
09.03.2026 21:36 10,7 °C 8,3 °C 4,4 °C 84 % 1018,7 hPa 0,0 l/m² 0 min 0 W/m² 0,0 km/h (0 Bft) 95,74 %
09.03.2026 21:38 10,6 °C 8,3 °C 4,4 °C 84 % 1018,7 hPa 0,0 l/m² 0 min 0 W/m² 0,0 km/h (0 Bft) 97,87 %
09.03.2026 21:40 10,6 °C 8,9 °C 4,4 °C 84 % 1018,7 hPa 0,0 l/m² 0 min 0 W/m² 0,0 km/h (0 Bft) 97,87 %
09.03.2026 21:42 10,6 °C 8,9 °C 5,0 °C 84 % 1018,7 hPa 0,0 l/m² 0 min 0 W/m² 0,0 km/h (0 Bft) 95,74 %
09.03.2026 21:44 10,5 °C 8,9 °C 5,0 °C 84 % 1018,7 hPa 0,0 l/m² 0 min 0 W/m² 0,0 km/h (0 Bft) 97,83 %
09.03.2026 21:46 10,5 °C 8,9 °C 5,0 °C 84 % 1018,8 hPa 0,0 l/m² 0 min 0 W/m² 0,0 km/h (0 Bft) 97,87 %
09.03.2026 21:48 10,5 °C 8,9 °C 5,0 °C 85 % 1018,8 hPa 0,0 l/m² 0 min 0 W/m² 0,0 km/h (0 Bft) 97,87 %
09.03.2026 21:50 10,4 °C 8,9 °C 4,4 °C 85 % 1018,8 hPa 0,0 l/m² 0 min 0 W/m² 0,0 km/h (0 Bft) 97,87 %
09.03.2026 21:52 10,4 °C 8,3 °C 4,4 °C 85 % 1018,8 hPa 0,0 l/m² 0 min 0 W/m² 0,0 km/h (0 Bft) 97,87 %
09.03.2026 21:54 10,4 °C 8,3 °C 4,4 °C 85 % 1018,7 hPa 0,0 l/m² 0 min 0 W/m² 0,0 km/h (0 Bft) 97,87 %
09.03.2026 21:56 10,3 °C 8,3 °C 4,4 °C 85 % 1018,7 hPa 0,0 l/m² 0 min 0 W/m² 0,0 km/h (0 Bft) 97,83 %
09.03.2026 21:58 10,3 °C 8,3 °C 4,4 °C 85 % 1018,7 hPa 0,0 l/m² 0 min 0 W/m² 0,0 km/h (0 Bft) 95,74 %
09.03.2026 22:00 10,3 °C 8,3 °C 4,4 °C 85 % 1018,7 hPa 0,0 l/m² 0 min 0 W/m² 0,0 km/h (0 Bft) 97,87 %
09.03.2026 22:02 10,3 °C 8,3 °C 4,4 °C 85 % 1018,7 hPa 0,0 l/m² 0 min 0 W/m² 0,0 km/h (0 Bft) 97,87 %
09.03.2026 22:04 10,2 °C 8,3 °C 4,4 °C 85 % 1018,7 hPa 0,0 l/m² 0 min 0 W/m² 0,0 km/h (0 Bft) 87,50 %
09.03.2026 22:06 10,2 °C 8,3 °C 4,4 °C 85 % 1018,7 hPa 0,0 l/m² 0 min 0 W/m² 0,0 km/h (0 Bft) 54,29 %
09.03.2026 22:08 10,2 °C 8,3 °C 4,4 °C 85 % 1018,7 hPa 0,0 l/m² 0 min 0 W/m² 0,0 km/h (0 Bft) 100,00 %
09.03.2026 22:10 10,1 °C 8,3 °C 4,4 °C 85 % 1018,7 hPa 0,0 l/m² 0 min 0 W/m² 0,0 km/h (0 Bft) 100,00 %
09.03.2026 22:12 10,1 °C 8,3 °C 4,4 °C 85 % 1018,7 hPa 0,0 l/m² 0 min 0 W/m² 3,2 km/h (1 Bft) 97,87 %
09.03.2026 22:14 10,1 °C 7,8 °C 4,4 °C 85 % 1018,7 hPa 0,0 l/m² 0 min 0 W/m² 0,0 km/h (0 Bft) 95,74 %
09.03.2026 22:16 10,0 °C 7,8 °C 4,4 °C 85 % 1018,7 hPa 0,0 l/m² 0 min 0 W/m² 0,0 km/h (0 Bft) 95,74 %
09.03.2026 22:18 10,0 °C 7,8 °C 4,4 °C 85 % 1018,7 hPa 0,0 l/m² 0 min 0 W/m² 0,0 km/h (0 Bft) 97,83 %
09.03.2026 22:20 9,9 °C 7,8 °C 3,9 °C 85 % 1018,7 hPa 0,0 l/m² 0 min 0 W/m² 0,0 km/h (0 Bft) 97,87 %
09.03.2026 22:22 9,9 °C 7,8 °C 3,9 °C 85 % 1018,7 hPa 0,0 l/m² 0 min 0 W/m² 0,0 km/h (0 Bft) 95,74 %
09.03.2026 22:24 9,9 °C 7,8 °C 3,9 °C 85 % 1018,8 hPa 0,0 l/m² 0 min 0 W/m² 0,0 km/h (0 Bft) 97,87 %
09.03.2026 22:26 9,9 °C 7,8 °C 3,9 °C 85 % 1018,8 hPa 0,0 l/m² 0 min 0 W/m² 0,0 km/h (0 Bft) 97,87 %
09.03.2026 22:28 9,8 °C 7,8 °C 3,9 °C 85 % 1018,7 hPa 0,0 l/m² 0 min 0 W/m² 0,0 km/h (0 Bft) 97,87 %
09.03.2026 22:30 9,8 °C 7,8 °C 3,9 °C 85 % 1018,7 hPa 0,0 l/m² 0 min 0 W/m² 0,0 km/h (0 Bft) 97,83 %
09.03.2026 22:32 9,8 °C 7,8 °C 3,9 °C 85 % 1018,7 hPa 0,0 l/m² 0 min 0 W/m² 0,0 km/h (0 Bft) 97,87 %
09.03.2026 22:34 9,7 °C 7,8 °C 3,9 °C 85 % 1018,7 hPa 0,0 l/m² 0 min 0 W/m² 0,0 km/h (0 Bft) 97,87 %
09.03.2026 22:36 9,7 °C 7,8 °C 3,9 °C 85 % 1018,7 hPa 0,0 l/m² 0 min 0 W/m² 0,0 km/h (0 Bft) 97,87 %
09.03.2026 22:38 9,7 °C 7,8 °C 3,9 °C 85 % 1018,7 hPa 0,0 l/m² 0 min 0 W/m² 0,0 km/h (0 Bft) 97,87 %
09.03.2026 22:40 9,6 °C 7,8 °C 3,9 °C 86 % 1018,7 hPa 0,0 l/m² 0 min 0 W/m² 0,0 km/h (0 Bft) 97,87 %
09.03.2026 22:42 9,6 °C 7,8 °C 3,9 °C 86 % 1018,6 hPa 0,0 l/m² 0 min 0 W/m² 0,0 km/h (0 Bft) 97,83 %
09.03.2026 22:44 9,6 °C 7,8 °C 3,9 °C 86 % 1018,7 hPa 0,0 l/m² 0 min 0 W/m² 0,0 km/h (0 Bft) 100,00 %
09.03.2026 22:46 9,5 °C 7,8 °C 3,9 °C 85 % 1018,7 hPa 0,0 l/m² 0 min 0 W/m² 0,0 km/h (0 Bft) 100,00 %
09.03.2026 22:48 9,5 °C 7,8 °C 3,9 °C 85 % 1018,6 hPa 0,0 l/m² 0 min 0 W/m² 0,0 km/h (0 Bft) 100,00 %
09.03.2026 22:50 9,4 °C 7,8 °C 3,9 °C 85 % 1018,6 hPa 0,0 l/m² 0 min 0 W/m² 0,0 km/h (0 Bft) 100,00 %
09.03.2026 22:52 9,4 °C 7,8 °C 3,9 °C 85 % 1018,7 hPa 0,0 l/m² 0 min 0 W/m² 0,0 km/h (0 Bft) 97,87 %
09.03.2026 22:54 9,4 °C 7,8 °C 3,9 °C 85 % 1018,7 hPa 0,0 l/m² 0 min 0 W/m² 0,0 km/h (0 Bft) 100,00 %
09.03.2026 22:56 9,3 °C 7,8 °C 3,9 °C 85 % 1018,7 hPa 0,0 l/m² 0 min 0 W/m² 0,0 km/h (0 Bft) 100,00 %
09.03.2026 22:58 9,3 °C 7,8 °C 3,9 °C 85 % 1018,7 hPa 0,0 l/m² 0 min 0 W/m² 0,0 km/h (0 Bft) 100,00 %
09.03.2026 23:00 9,3 °C 7,8 °C 3,9 °C 85 % 1018,6 hPa 0,0 l/m² 0 min 0 W/m² 0,0 km/h (0 Bft) 97,83 %
09.03.2026 23:02 9,2 °C 7,8 °C 3,9 °C 85 % 1018,7 hPa 0,0 l/m² 0 min 0 W/m² 0,0 km/h (0 Bft) 97,87 %
09.03.2026 23:04 9,2 °C 7,8 °C 3,9 °C 85 % 1018,6 hPa 0,0 l/m² 0 min 0 W/m² 0,0 km/h (0 Bft) 97,87 %
09.03.2026 23:06 9,2 °C 7,8 °C 3,9 °C 85 % 1018,7 hPa 0,0 l/m² 0 min 0 W/m² 0,0 km/h (0 Bft) 100,00 %
09.03.2026 23:08 9,2 °C 7,2 °C 3,9 °C 85 % 1018,6 hPa 0,0 l/m² 0 min 0 W/m² 0,0 km/h (0 Bft) 97,87 %
09.03.2026 23:10 9,1 °C 7,2 °C 3,9 °C 85 % 1018,6 hPa 0,0 l/m² 0 min 0 W/m² 0,0 km/h (0 Bft) 97,87 %
09.03.2026 23:12 9,1 °C 7,2 °C 3,9 °C 85 % 1018,7 hPa 0,0 l/m² 0 min 0 W/m² 0,0 km/h (0 Bft) 100,00 %
09.03.2026 23:14 9,1 °C 7,2 °C 3,9 °C 85 % 1018,7 hPa 0,0 l/m² 0 min 0 W/m² 0,0 km/h (0 Bft) 97,87 %
09.03.2026 23:16 9,0 °C 7,2 °C 3,3 °C 85 % 1018,7 hPa 0,0 l/m² 0 min 0 W/m² 0,0 km/h (0 Bft) 97,87 %
09.03.2026 23:18 9,0 °C 7,2 °C 3,3 °C 85 % 1018,6 hPa 0,0 l/m² 0 min 0 W/m² 0,0 km/h (0 Bft) 93,62 %
09.03.2026 23:20 8,9 °C 7,2 °C 3,3 °C 85 % 1018,7 hPa 0,0 l/m² 0 min 0 W/m² 0,0 km/h (0 Bft) 95,74 %
09.03.2026 23:22 8,9 °C 7,2 °C 3,3 °C 85 % 1018,7 hPa 0,0 l/m² 0 min 0 W/m² 0,0 km/h (0 Bft) 95,74 %
09.03.2026 23:24 8,9 °C 7,2 °C 3,3 °C 85 % 1018,7 hPa 0,0 l/m² 0 min 0 W/m² 0,0 km/h (0 Bft) 95,65 %
09.03.2026 23:26 8,9 °C 7,2 °C 3,3 °C 85 % 1018,7 hPa 0,0 l/m² 0 min 0 W/m² 0,0 km/h (0 Bft) 95,74 %
09.03.2026 23:28 8,8 °C 7,2 °C 3,3 °C 85 % 1018,6 hPa 0,0 l/m² 0 min 0 W/m² 0,0 km/h (0 Bft) 95,74 %
09.03.2026 23:30 8,8 °C 7,2 °C 3,3 °C 86 % 1018,6 hPa 0,0 l/m² 0 min 0 W/m² 0,0 km/h (0 Bft) 95,74 %
09.03.2026 23:32 8,8 °C 7,2 °C 3,3 °C 86 % 1018,7 hPa 0,0 l/m² 0 min 0 W/m² 0,0 km/h (0 Bft) 93,62 %
09.03.2026 23:34 8,8 °C 7,2 °C 3,3 °C 86 % 1018,7 hPa 0,0 l/m² 0 min 0 W/m² 0,0 km/h (0 Bft) 95,74 %
09.03.2026 23:36 8,8 °C 7,2 °C 3,9 °C 86 % 1018,7 hPa 0,0 l/m² 0 min 0 W/m² 0,0 km/h (0 Bft) 95,65 %
09.03.2026 23:38 8,8 °C 7,2 °C 3,9 °C 86 % 1018,7 hPa 0,0 l/m² 0 min 0 W/m² 0,0 km/h (0 Bft) 95,74 %
09.03.2026 23:40 8,8 °C 7,2 °C 3,9 °C 86 % 1018,7 hPa 0,0 l/m² 0 min 0 W/m² 0,0 km/h (0 Bft) 95,74 %
09.03.2026 23:42 8,7 °C 7,2 °C 3,9 °C 86 % 1018,7 hPa 0,0 l/m² 0 min 0 W/m² 0,0 km/h (0 Bft) 95,74 %
09.03.2026 23:44 8,7 °C 7,2 °C 3,9 °C 86 % 1018,7 hPa 0,0 l/m² 0 min 0 W/m² 0,0 km/h (0 Bft) 95,74 %
09.03.2026 23:46 8,7 °C 7,2 °C 3,9 °C 86 % 1018,7 hPa 0,0 l/m² 0 min 0 W/m² 0,0 km/h (0 Bft) 95,74 %
09.03.2026 23:48 8,7 °C 7,2 °C 3,9 °C 86 % 1018,7 hPa 0,0 l/m² 0 min 0 W/m² 0,0 km/h (0 Bft) 97,83 %
09.03.2026 23:50 8,6 °C 7,2 °C 3,9 °C 86 % 1018,7 hPa 0,0 l/m² 0 min 0 W/m² 0,0 km/h (0 Bft) 93,62 %
09.03.2026 23:52 8,6 °C 7,2 °C 3,9 °C 86 % 1018,7 hPa 0,0 l/m² 0 min 0 W/m² 0,0 km/h (0 Bft) 97,87 %
09.03.2026 23:54 8,6 °C 7,2 °C 3,9 °C 86 % 1018,7 hPa 0,0 l/m² 0 min 0 W/m² 0,0 km/h (0 Bft) 95,74 %
09.03.2026 23:56 8,6 °C 7,2 °C 3,9 °C 86 % 1018,7 hPa 0,0 l/m² 0 min 0 W/m² 0,0 km/h (0 Bft) 95,74 %
09.03.2026 23:58 8,6 °C 7,2 °C 3,9 °C 86 % 1018,7 hPa 0,0 l/m² 0 min 0 W/m² 0,0 km/h (0 Bft) 95,74 %
_ Min-Zeit 07:20 05:26 04:48 15:04 17:16 - - - 04:28 00:02
Minimum _ 6,2 °C 5,6 °C 2,2 °C 55 % 1018,5 hPa - - - 0,0 km/h (0 Bft) 6,67 %
_ Max-Zeit 15:16 13:04 11:58 07:56 00:00 00:00 12:12 12:52 14:48 00:50
Maximum _ 21,3 °C 27,2 °C 18,3 °C 89 % 1022,1 hPa 0,0 l/m² 4 min 540 W/m² 22,5 km/h
N-NW (4 Bft)
100,00 %
Durchschnitt _ 12,3 °C 13,1 °C 7,5 °C 75 % 1020,3 hPa #0,0 l/m² #8:07 h 282 W/m² 5,5 km/h (1 Bft) 97,26 %
© 2026 W. Hausmann